Visualización de Tramas

Fecha IMEI Serie del medidor TC Pri TC Sec Tipo Lectura Energía Activa Total (kWh) Energía Activa B1 (kWh) Energía Activa B2 (kWh) Energía Activa B3 (kWh) Energía Activa B4 (kWh) Energía Reactiva Total (kVARh) Corriente Fase A (Amp) Corriente Fase B (Amp) Voltaje Fase A (V) Voltaje Fase B (V) F.P. Frecuencia (Hz) Dem Max. Acum. (kW) Dem Max. Acum. B1 (kW) Dem Max. Acum. B2 (kW) Dem Max. Acum. B3 (kW) Dem Max. Acum. B4 (kW) Dem React. Acum. (kVAR)
2024-04-06 16:26:36 357042066469132 Auto 0.00 0.00 0.00 0.00 0.00 0.00 0.00 0.00 0.00 0.00 0.00 0.00 0.00 0.00 0.00 0.00 0.00 0.00
2024-04-06 16:33:32 357042066469132 Auto 0.00 0.00 0.00 0.00 0.00 0.00 0.00 0.00 0.00 0.00 0.00 0.00 0.00 0.00 0.00 0.00 0.00 0.00
2024-04-06 16:37:34 357042066469132 Auto 0.00 0.00 0.00 0.00 0.00 0.00 0.00 0.00 0.00 0.00 0.00 0.00 0.00 0.00 0.00 0.00 0.00 0.00
2024-04-06 16:45:35 357042066469132 Auto 0.00 0.00 0.00 0.00 0.00 0.00 0.00 0.00 0.00 0.00 0.00 0.00 0.00 0.00 0.00 0.00 0.00 0.00
2024-04-06 16:52:32 357042066469132 Auto 0.00 0.00 0.00 0.00 0.00 0.00 0.00 0.00 0.00 0.00 0.00 0.00 0.00 0.00 0.00 0.00 0.00 0.00
2024-04-06 17:07:31 357042066469132 Auto 0.00 0.00 0.00 0.00 0.00 0.00 0.00 0.00 0.00 0.00 0.00 0.00 0.00 0.00 0.00 0.00 0.00 0.00
2024-04-06 17:17:46 357042066469132 Auto 0.00 0.00 0.00 0.00 0.00 0.00 0.00 0.00 0.00 0.00 0.00 0.00 0.00 0.00 0.00 0.00 0.00 0.00
2024-04-06 17:32:46 357042066469132 Auto 0.00 0.00 0.00 0.00 0.00 0.00 0.00 0.00 0.00 0.00 0.00 0.00 0.00 0.00 0.00 0.00 0.00 0.00
2024-04-06 17:38:51 357042066469132 Auto 0.00 0.00 0.00 0.00 0.00 0.00 0.00 0.00 0.00 0.00 0.00 0.00 0.00 0.00 0.00 0.00 0.00 0.00
2024-04-06 17:47:50 357042066469132 Auto 0.00 0.00 0.00 0.00 0.00 0.00 0.00 0.00 0.00 0.00 0.00 0.00 0.00 0.00 0.00 0.00 0.00 0.00
2024-04-06 18:02:49 357042066469132 Auto 0.00 0.00 0.00 0.00 0.00 0.00 0.00 0.00 0.00 0.00 0.00 0.00 0.00 0.00 0.00 0.00 0.00 0.00
2024-04-06 18:17:49 357042066469132 Auto 0.00 0.00 0.00 0.00 0.00 0.00 0.00 0.00 0.00 0.00 0.00 0.00 0.00 0.00 0.00 0.00 0.00 0.00
2024-04-07 14:25:59 357042066469132 537019040002 0001 0001 Auto 0.00 0.00 0.00 0.00 0.00 0.00 0.00 0.00 112.25 0.00 1.00 6.00 0.00 0.00 0.00 0.00 0.00 0.00
2024-04-07 14:41:01 357042066469132 537019040002 0001 0001 Auto 0.00 0.00 0.00 0.00 0.00 0.00 0.00 0.00 114.36 0.00 1.00 6.01 0.00 0.00 0.00 0.00 0.00 0.00
2024-04-07 14:55:59 357042066469132 537019040002 0001 0001 Auto 0.00 0.00 0.00 0.00 0.00 0.00 0.00 0.00 113.21 0.00 1.00 6.00 0.00 0.00 0.00 0.00 0.00 0.00
2024-04-07 15:10:59 357042066469132 537019040002 0001 0001 Auto 0.00 0.00 0.00 0.00 0.00 0.00 0.00 0.00 115.67 0.00 1.00 6.00 0.00 0.00 0.00 0.00 0.00 0.00
2024-04-07 15:25:59 357042066469132 537019040002 0001 0001 Auto 0.00 0.00 0.00 0.00 0.00 0.00 0.00 0.00 113.82 0.00 1.00 6.00 0.00 0.00 0.00 0.00 0.00 0.00
2024-04-07 15:40:59 357042066469132 537019040002 0001 0001 Auto 0.00 0.00 0.00 0.00 0.00 0.00 0.00 0.00 112.17 0.00 1.00 60.04 0.00 0.00 0.00 0.00 0.00 0.00
2024-04-07 15:55:59 357042066469132 537019040002 0001 0001 Auto 0.00 0.00 0.00 0.00 0.00 0.00 0.00 0.00 114.65 0.00 1.00 60.01 0.00 0.00 0.00 0.00 0.00 0.00
2024-04-07 16:10:59 357042066469132 537019040002 0001 0001 Auto 0.00 0.00 0.00 0.00 0.00 0.00 0.00 0.00 115.88 0.00 1.00 60.06 0.00 0.00 0.00 0.00 0.00 0.00
2024-04-07 16:26:00 357042066469132 537019040002 0001 0001 Auto 0.00 0.00 0.00 0.00 0.00 0.00 0.00 0.00 114.06 0.00 1.00 60.09 0.00 0.00 0.00 0.00 0.00 0.00
2024-04-07 16:40:59 357042066469132 537019040002 0001 0001 Auto 0.00 0.00 0.00 0.00 0.00 0.00 0.00 0.00 113.87 0.00 1.00 60.00 0.00 0.00 0.00 0.00 0.00 0.00
2024-04-07 16:55:59 357042066469132 537019040002 0001 0001 Auto 0.00 0.00 0.00 0.00 0.00 0.00 0.00 0.00 114.14 0.00 1.00 60.01 0.00 0.00 0.00 0.00 0.00 0.00
2024-04-07 17:10:59 357042066469132 537019040002 0001 0001 Auto 0.00 0.00 0.00 0.00 0.00 0.00 0.00 0.00 114.78 0.00 1.00 60.04 0.00 0.00 0.00 0.00 0.00 0.00
2024-04-07 17:25:59 357042066469132 537019040002 0001 0001 Auto 0.00 0.00 0.00 0.00 0.00 0.00 0.00 0.00 115.22 0.00 1.00 60.03 0.00 0.00 0.00 0.00 0.00 0.00
2024-04-07 17:40:59 357042066469132 537019040002 0001 0001 Auto 0.00 0.00 0.00 0.00 0.00 0.00 0.00 0.00 115.60 0.00 1.00 60.02 0.00 0.00 0.00 0.00 0.00 0.00
2024-04-07 17:55:59 357042066469132 537019040002 0001 0001 Auto 0.00 0.00 0.00 0.00 0.00 0.00 0.00 0.00 115.75 0.00 1.00 59.99 0.00 0.00 0.00 0.00 0.00 0.00
2024-04-07 18:10:59 357042066469132 537019040002 0001 0001 Auto 0.00 0.00 0.00 0.00 0.00 0.00 0.00 0.00 114.48 0.00 1.00 60.03 0.00 0.00 0.00 0.00 0.00 0.00
2024-04-07 18:25:59 357042066469132 537019040002 0001 0001 Auto 0.00 0.00 0.00 0.00 0.00 0.00 0.00 0.00 115.42 0.00 1.00 60.03 0.00 0.00 0.00 0.00 0.00 0.00
2024-04-07 18:40:59 357042066469132 537019040002 0001 0001 Auto 0.00 0.00 0.00 0.00 0.00 0.00 0.00 0.00 115.66 0.00 1.00 60.07 0.00 0.00 0.00 0.00 0.00 0.00
2024-04-07 18:55:59 357042066469132 537019040002 0001 0001 Auto 0.00 0.00 0.00 0.00 0.00 0.00 0.00 0.00 116.31 0.00 1.00 60.03 0.00 0.00 0.00 0.00 0.00 0.00
2024-04-07 19:10:59 357042066469132 537019040002 0001 0001 Auto 0.00 0.00 0.00 0.00 0.00 0.00 0.00 0.00 115.96 0.00 1.00 60.02 0.00 0.00 0.00 0.00 0.00 0.00
2024-04-07 19:25:59 357042066469132 537019040002 0001 0001 Auto 0.00 0.00 0.00 0.00 0.00 0.00 0.00 0.00 116.47 0.00 1.00 60.04 0.00 0.00 0.00 0.00 0.00 0.00
2024-04-07 19:40:58 357042066469132 537019040002 0001 0001 Auto 0.00 0.00 0.00 0.00 0.00 0.00 0.00 0.00 115.71 0.00 1.00 60.01 0.00 0.00 0.00 0.00 0.00 0.00
2024-04-07 19:55:59 357042066469132 537019040002 0001 0001 Auto 0.00 0.00 0.00 0.00 0.00 0.00 0.00 0.00 117.00 0.00 1.00 59.99 0.00 0.00 0.00 0.00 0.00 0.00
2024-04-07 20:10:58 357042066469132 537019040002 0001 0001 Auto 0.00 0.00 0.00 0.00 0.00 0.00 0.00 0.00 115.48 0.00 1.00 60.03 0.00 0.00 0.00 0.00 0.00 0.00
2024-04-07 20:25:59 357042066469132 537019040002 0001 0001 Auto 0.00 0.00 0.00 0.00 0.00 0.00 0.00 0.00 114.38 0.00 1.00 60.07 0.00 0.00 0.00 0.00 0.00 0.00
2024-04-07 20:40:59 357042066469132 537019040002 0001 0001 Auto 0.00 0.00 0.00 0.00 0.00 0.00 0.00 0.00 113.02 0.00 1.00 60.10 0.00 0.00 0.00 0.00 0.00 0.00
2024-04-07 20:55:59 357042066469132 537019040002 0001 0001 Auto 0.00 0.00 0.00 0.00 0.00 0.00 0.00 0.00 114.38 0.00 1.00 60.08 0.00 0.00 0.00 0.00 0.00 0.00
2024-04-07 21:10:58 357042066469132 537019040002 0001 0001 Auto 0.00 0.00 0.00 0.00 0.00 0.00 0.00 0.00 115.22 0.00 1.00 60.05 0.00 0.00 0.00 0.00 0.00 0.00
2024-04-07 21:25:59 357042066469132 537019040002 0001 0001 Auto 0.00 0.00 0.00 0.00 0.00 0.00 0.00 0.00 114.11 0.00 1.00 60.02 0.00 0.00 0.00 0.00 0.00 0.00
2024-04-07 21:40:59 357042066469132 537019040002 0001 0001 Auto 0.00 0.00 0.00 0.00 0.00 0.00 0.00 0.00 114.18 0.00 1.00 60.00 0.00 0.00 0.00 0.00 0.00 0.00
2024-04-07 21:55:59 357042066469132 537019040002 0001 0001 Auto 0.00 0.00 0.00 0.00 0.00 0.00 0.00 0.00 113.82 0.00 1.00 60.05 0.00 0.00 0.00 0.00 0.00 0.00
2024-04-07 22:10:59 357042066469132 537019040002 0001 0001 Auto 0.00 0.00 0.00 0.00 0.00 0.00 0.00 0.00 114.56 0.00 1.00 60.03 0.00 0.00 0.00 0.00 0.00 0.00
2024-04-07 22:25:59 357042066469132 537019040002 0001 0001 Auto 0.00 0.00 0.00 0.00 0.00 0.00 0.00 0.00 114.05 0.00 1.00 60.06 0.00 0.00 0.00 0.00 0.00 0.00
2024-04-07 22:40:59 357042066469132 537019040002 0001 0001 Auto 0.00 0.00 0.00 0.00 0.00 0.00 0.00 0.00 115.23 0.00 1.00 60.03 0.00 0.00 0.00 0.00 0.00 0.00
2024-04-07 22:55:58 357042066469132 537019040002 0001 0001 Auto 0.00 0.00 0.00 0.00 0.00 0.00 0.00 0.00 114.50 0.00 1.00 60.02 0.00 0.00 0.00 0.00 0.00 0.00
2024-04-07 23:10:59 357042066469132 537019040002 0001 0001 Auto 0.00 0.00 0.00 0.00 0.00 0.00 0.00 0.00 113.77 0.00 1.00 59.98 0.00 0.00 0.00 0.00 0.00 0.00
2024-04-07 23:25:59 357042066469132 537019040002 0001 0001 Auto 0.00 0.00 0.00 0.00 0.00 0.00 0.00 0.00 113.83 0.00 1.00 60.02 0.00 0.00 0.00 0.00 0.00 0.00
2024-04-07 23:40:58 357042066469132 537019040002 0001 0001 Auto 0.00 0.00 0.00 0.00 0.00 0.00 0.00 0.00 113.34 0.00 1.00 60.07 0.00 0.00 0.00 0.00 0.00 0.00
2024-04-07 23:55:59 357042066469132 537019040002 0001 0001 Auto 0.00 0.00 0.00 0.00 0.00 0.00 0.00 0.00 113.53 0.00 1.00 60.09 0.00 0.00 0.00 0.00 0.00 0.00
2024-04-08 00:10:58 357042066469132 537019040002 0001 0001 Auto 0.00 0.00 0.00 0.00 0.00 0.00 0.00 0.00 115.12 0.00 1.00 60.08 0.00 0.00 0.00 0.00 0.00 0.00
2024-04-08 00:25:58 357042066469132 537019040002 0001 0001 Auto 0.00 0.00 0.00 0.00 0.00 0.00 0.00 0.00 113.77 0.00 1.00 60.06 0.00 0.00 0.00 0.00 0.00 0.00
2024-04-08 00:40:59 357042066469132 537019040002 0001 0001 Auto 0.00 0.00 0.00 0.00 0.00 0.00 0.00 0.00 113.01 0.00 1.00 60.06 0.00 0.00 0.00 0.00 0.00 0.00
2024-04-08 00:55:58 357042066469132 537019040002 0001 0001 Auto 0.00 0.00 0.00 0.00 0.00 0.00 0.00 0.00 114.84 0.00 1.00 60.04 0.00 0.00 0.00 0.00 0.00 0.00
2024-04-08 01:10:58 357042066469132 537019040002 0001 0001 Auto 0.00 0.00 0.00 0.00 0.00 0.00 0.00 0.00 113.98 0.00 1.00 60.08 0.00 0.00 0.00 0.00 0.00 0.00
2024-04-08 01:25:58 357042066469132 537019040002 0001 0001 Auto 0.00 0.00 0.00 0.00 0.00 0.00 0.00 0.00 115.29 0.00 1.00 60.01 0.00 0.00 0.00 0.00 0.00 0.00
2024-04-08 01:40:58 357042066469132 537019040002 0001 0001 Auto 0.00 0.00 0.00 0.00 0.00 0.00 0.00 0.00 115.60 0.00 1.00 60.06 0.00 0.00 0.00 0.00 0.00 0.00
2024-04-08 01:55:59 357042066469132 537019040002 0001 0001 Auto 0.00 0.00 0.00 0.00 0.00 0.00 0.00 0.00 116.35 0.00 1.00 60.05 0.00 0.00 0.00 0.00 0.00 0.00
2024-04-08 02:10:58 357042066469132 537019040002 0001 0001 Auto 0.00 0.00 0.00 0.00 0.00 0.00 0.00 0.00 117.56 0.00 1.00 60.07 0.00 0.00 0.00 0.00 0.00 0.00
2024-04-08 02:25:58 357042066469132 537019040002 0001 0001 Auto 0.00 0.00 0.00 0.00 0.00 0.00 0.00 0.00 115.29 0.00 1.00 60.06 0.00 0.00 0.00 0.00 0.00 0.00
2024-04-08 02:40:59 357042066469132 537019040002 0001 0001 Auto 0.00 0.00 0.00 0.00 0.00 0.00 0.00 0.00 115.69 0.00 1.00 60.10 0.00 0.00 0.00 0.00 0.00 0.00
2024-04-08 02:55:58 357042066469132 537019040002 0001 0001 Auto 0.00 0.00 0.00 0.00 0.00 0.00 0.00 0.00 115.76 0.00 1.00 60.02 0.00 0.00 0.00 0.00 0.00 0.00
2024-04-08 03:10:58 357042066469132 537019040002 0001 0001 Auto 0.00 0.00 0.00 0.00 0.00 0.00 0.00 0.00 116.74 0.00 1.00 60.02 0.00 0.00 0.00 0.00 0.00 0.00
2024-04-08 03:25:58 357042066469132 537019040002 0001 0001 Auto 0.00 0.00 0.00 0.00 0.00 0.00 0.00 0.00 115.35 0.00 1.00 60.05 0.00 0.00 0.00 0.00 0.00 0.00
2024-04-08 03:40:58 357042066469132 537019040002 0001 0001 Auto 0.00 0.00 0.00 0.00 0.00 0.00 0.00 0.00 116.54 0.00 1.00 60.02 0.00 0.00 0.00 0.00 0.00 0.00
2024-04-08 03:55:58 357042066469132 537019040002 0001 0001 Auto 0.00 0.00 0.00 0.00 0.00 0.00 0.00 0.00 115.14 0.00 1.00 60.04 0.00 0.00 0.00 0.00 0.00 0.00
2024-04-08 04:10:58 357042066469132 537019040002 0001 0001 Auto 0.00 0.00 0.00 0.00 0.00 0.00 0.00 0.00 117.67 0.00 1.00 60.08 0.00 0.00 0.00 0.00 0.00 0.00
2024-04-08 04:25:58 357042066469132 537019040002 0001 0001 Auto 0.00 0.00 0.00 0.00 0.00 0.00 0.00 0.00 116.23 0.00 1.00 60.05 0.00 0.00 0.00 0.00 0.00 0.00
2024-04-08 04:40:58 357042066469132 537019040002 0001 0001 Auto 0.00 0.00 0.00 0.00 0.00 0.00 0.00 0.00 116.93 0.00 1.00 60.05 0.00 0.00 0.00 0.00 0.00 0.00
2024-04-08 04:55:58 357042066469132 537019040002 0001 0001 Auto 0.00 0.00 0.00 0.00 0.00 0.00 0.00 0.00 116.63 0.00 1.00 60.02 0.00 0.00 0.00 0.00 0.00 0.00
2024-04-08 05:10:58 357042066469132 537019040002 0001 0001 Auto 0.00 0.00 0.00 0.00 0.00 0.00 0.00 0.00 119.71 0.00 1.00 60.12 0.00 0.00 0.00 0.00 0.00 0.00
2024-04-08 05:25:57 357042066469132 537019040002 0001 0001 Auto 0.00 0.00 0.00 0.00 0.00 0.00 0.00 0.00 118.74 0.00 1.00 60.02 0.00 0.00 0.00 0.00 0.00 0.00
2024-04-08 05:40:58 357042066469132 537019040002 0001 0001 Auto 0.00 0.00 0.00 0.00 0.00 0.00 0.00 0.00 118.63 0.00 1.00 60.00 0.00 0.00 0.00 0.00 0.00 0.00
2024-04-08 05:55:58 357042066469132 537019040002 0001 0001 Auto 0.00 0.00 0.00 0.00 0.00 0.00 0.00 0.00 118.85 0.00 1.00 60.04 0.00 0.00 0.00 0.00 0.00 0.00
2024-04-08 06:10:58 357042066469132 537019040002 0001 0001 Auto 0.00 0.00 0.00 0.00 0.00 0.00 0.00 0.00 118.20 0.00 1.00 60.06 0.00 0.00 0.00 0.00 0.00 0.00
2024-04-08 06:25:57 357042066469132 537019040002 0001 0001 Auto 0.00 0.00 0.00 0.00 0.00 0.00 0.00 0.00 119.59 0.00 1.00 60.06 0.00 0.00 0.00 0.00 0.00 0.00
2024-04-08 06:40:58 357042066469132 537019040002 0001 0001 Auto 0.00 0.00 0.00 0.00 0.00 0.00 0.00 0.00 119.55 0.00 1.00 60.08 0.00 0.00 0.00 0.00 0.00 0.00
2024-04-08 06:55:58 357042066469132 537019040002 0001 0001 Auto 0.00 0.00 0.00 0.00 0.00 0.00 0.00 0.00 119.12 0.00 1.00 60.06 0.00 0.00 0.00 0.00 0.00 0.00
2024-04-08 07:10:59 357042066469132 537019040002 0001 0001 Auto 0.00 0.00 0.00 0.00 0.00 0.00 0.00 0.00 118.29 0.00 1.00 60.02 0.00 0.00 0.00 0.00 0.00 0.00
2024-04-08 07:25:58 357042066469132 537019040002 0001 0001 Auto 0.00 0.00 0.00 0.00 0.00 0.00 0.00 0.00 119.76 0.00 1.00 60.04 0.00 0.00 0.00 0.00 0.00 0.00
2024-04-08 07:40:57 357042066469132 537019040002 0001 0001 Auto 0.00 0.00 0.00 0.00 0.00 0.00 0.00 0.00 117.54 0.00 1.00 60.07 0.00 0.00 0.00 0.00 0.00 0.00
2024-04-08 07:55:57 357042066469132 537019040002 0001 0001 Auto 0.00 0.00 0.00 0.00 0.00 0.00 0.00 0.00 118.00 0.00 1.00 60.08 0.00 0.00 0.00 0.00 0.00 0.00
2024-04-08 08:10:57 357042066469132 537019040002 0001 0001 Auto 0.00 0.00 0.00 0.00 0.00 0.00 0.00 0.00 118.88 0.00 1.00 60.01 0.00 0.00 0.00 0.00 0.00 0.00
2024-04-08 08:25:57 357042066469132 537019040002 0001 0001 Auto 0.00 0.00 0.00 0.00 0.00 0.00 0.00 0.00 115.68 0.00 1.00 59.99 0.00 0.00 0.00 0.00 0.00 0.00
2024-04-08 08:40:57 357042066469132 537019040002 0001 0001 Auto 0.00 0.00 0.00 0.00 0.00 0.00 0.00 0.00 118.44 0.00 1.00 60.04 0.00 0.00 0.00 0.00 0.00 0.00
2024-04-08 08:55:57 357042066469132 537019040002 0001 0001 Auto 0.00 0.00 0.00 0.00 0.00 0.00 0.00 0.00 116.14 0.00 1.00 60.06 0.00 0.00 0.00 0.00 0.00 0.00
2024-04-08 09:10:57 357042066469132 537019040002 0001 0001 Auto 0.00 0.00 0.00 0.00 0.00 0.00 0.00 0.00 117.40 0.00 1.00 59.99 0.00 0.00 0.00 0.00 0.00 0.00
2024-04-08 09:25:57 357042066469132 537019040002 0001 0001 Auto 0.00 0.00 0.00 0.00 0.00 0.00 0.00 0.00 117.11 0.00 1.00 60.06 0.00 0.00 0.00 0.00 0.00 0.00
2024-04-08 09:40:57 357042066469132 537019040002 0001 0001 Auto 0.00 0.00 0.00 0.00 0.00 0.00 0.00 0.00 118.20 0.00 1.00 60.04 0.00 0.00 0.00 0.00 0.00 0.00
2024-04-08 09:55:57 357042066469132 537019040002 0001 0001 Auto 0.00 0.00 0.00 0.00 0.00 0.00 0.00 0.00 118.87 0.00 1.00 60.04 0.00 0.00 0.00 0.00 0.00 0.00
2024-04-08 10:10:57 357042066469132 537019040002 0001 0001 Auto 0.00 0.00 0.00 0.00 0.00 0.00 0.00 0.00 118.92 0.00 1.00 60.07 0.00 0.00 0.00 0.00 0.00 0.00
2024-04-08 10:25:57 357042066469132 537019040002 0001 0001 Auto 0.00 0.00 0.00 0.00 0.00 0.00 0.00 0.00 118.53 0.00 1.00 60.07 0.00 0.00 0.00 0.00 0.00 0.00
2024-04-08 10:40:58 357042066469132 537019040002 0001 0001 Auto 0.00 0.00 0.00 0.00 0.00 0.00 0.00 0.00 118.83 0.00 1.00 60.05 0.00 0.00 0.00 0.00 0.00 0.00
2024-04-08 10:56:02 357042066469132 537019040002 0001 0001 Auto 0.00 0.00 0.00 0.00 0.00 0.00 0.00 0.00 116.51 0.00 1.00 60.06 0.00 0.00 0.00 0.00 0.00 0.00
2024-04-08 11:10:57 357042066469132 537019040002 0001 0001 Auto 0.00 0.00 0.00 0.00 0.00 0.00 0.00 0.00 118.23 0.00 1.00 60.03 0.00 0.00 0.00 0.00 0.00 0.00
2024-04-08 11:25:56 357042066469132 537019040002 0001 0001 Auto 0.00 0.00 0.00 0.00 0.00 0.00 0.00 0.00 118.86 0.00 1.00 60.10 0.00 0.00 0.00 0.00 0.00 0.00
2024-04-08 11:40:57 357042066469132 537019040002 0001 0001 Auto 0.00 0.00 0.00 0.00 0.00 0.00 0.00 0.00 116.52 0.00 1.00 60.07 0.00 0.00 0.00 0.00 0.00 0.00
2024-04-08 11:55:57 357042066469132 537019040002 0001 0001 Auto 0.00 0.00 0.00 0.00 0.00 0.00 0.00 0.00 116.80 0.00 1.00 60.11 0.00 0.00 0.00 0.00 0.00 0.00
2024-04-08 12:10:57 357042066469132 537019040002 0001 0001 Auto 0.00 0.00 0.00 0.00 0.00 0.00 0.00 0.00 116.72 0.00 1.00 60.03 0.00 0.00 0.00 0.00 0.00 0.00
2024-04-08 12:25:56 357042066469132 537019040002 0001 0001 Auto 0.00 0.00 0.00 0.00 0.00 0.00 0.00 0.00 115.50 0.00 1.00 60.05 0.00 0.00 0.00 0.00 0.00 0.00
2024-04-08 12:40:56 357042066469132 537019040002 0001 0001 Auto 0.00 0.00 0.00 0.00 0.00 0.00 0.00 0.00 113.47 0.00 1.00 60.06 0.00 0.00 0.00 0.00 0.00 0.00
2024-04-08 12:55:56 357042066469132 537019040002 0001 0001 Auto 0.00 0.00 0.00 0.00 0.00 0.00 0.00 0.00 113.50 0.00 1.00 60.06 0.00 0.00 0.00 0.00 0.00 0.00
2024-04-08 13:10:56 357042066469132 537019040002 0001 0001 Auto 0.00 0.00 0.00 0.00 0.00 0.00 0.00 0.00 117.29 0.00 1.00 60.07 0.00 0.00 0.00 0.00 0.00 0.00
2024-04-08 13:25:56 357042066469132 537019040002 0001 0001 Auto 0.00 0.00 0.00 0.00 0.00 0.00 0.00 0.00 115.58 0.00 1.00 60.07 0.00 0.00 0.00 0.00 0.00 0.00
2024-04-08 13:40:56 357042066469132 537019040002 0001 0001 Auto 0.00 0.00 0.00 0.00 0.00 0.00 0.00 0.00 116.52 0.00 1.00 60.03 0.00 0.00 0.00 0.00 0.00 0.00
2024-04-08 13:55:56 357042066469132 537019040002 0001 0001 Auto 0.00 0.00 0.00 0.00 0.00 0.00 0.00 0.00 118.26 0.00 1.00 60.03 0.00 0.00 0.00 0.00 0.00 0.00
2024-04-08 14:10:57 357042066469132 537019040002 0001 0001 Auto 0.00 0.00 0.00 0.00 0.00 0.00 0.00 0.00 115.67 0.00 1.00 60.08 0.00 0.00 0.00 0.00 0.00 0.00
2024-04-08 14:25:57 357042066469132 537019040002 0001 0001 Auto 0.00 0.00 0.00 0.00 0.00 0.00 0.00 0.00 116.24 0.00 1.00 60.06 0.00 0.00 0.00 0.00 0.00 0.00
2024-04-08 14:40:57 357042066469132 537019040002 0001 0001 Auto 0.00 0.00 0.00 0.00 0.00 0.00 0.00 0.00 116.47 0.00 1.00 60.05 0.00 0.00 0.00 0.00 0.00 0.00
2024-04-08 14:55:56 357042066469132 537019040002 0001 0001 Auto 0.00 0.00 0.00 0.00 0.00 0.00 0.00 0.00 115.17 0.00 1.00 60.05 0.00 0.00 0.00 0.00 0.00 0.00
2024-04-08 15:10:56 357042066469132 537019040002 0001 0001 Auto 0.00 0.00 0.00 0.00 0.00 0.00 0.00 0.00 114.88 0.00 1.00 60.05 0.00 0.00 0.00 0.00 0.00 0.00
2024-04-08 15:25:56 357042066469132 537019040002 0001 0001 Auto 0.00 0.00 0.00 0.00 0.00 0.00 0.00 0.00 114.36 0.00 1.00 60.07 0.00 0.00 0.00 0.00 0.00 0.00
2024-04-08 15:40:56 357042066469132 537019040002 0001 0001 Auto 0.00 0.00 0.00 0.00 0.00 0.00 0.00 0.00 115.79 0.00 1.00 60.03 0.00 0.00 0.00 0.00 0.00 0.00
2024-04-08 15:55:56 357042066469132 537019040002 0001 0001 Auto 0.00 0.00 0.00 0.00 0.00 0.00 0.00 0.00 116.12 0.00 1.00 60.02 0.00 0.00 0.00 0.00 0.00 0.00
2024-04-08 16:10:56 357042066469132 537019040002 0001 0001 Auto 0.00 0.00 0.00 0.00 0.00 0.00 0.00 0.00 117.27 0.00 1.00 59.99 0.00 0.00 0.00 0.00 0.00 0.00
2024-04-08 16:25:56 357042066469132 537019040002 0001 0001 Auto 0.00 0.00 0.00 0.00 0.00 0.00 0.00 0.00 116.18 0.00 1.00 60.05 0.00 0.00 0.00 0.00 0.00 0.00
2024-04-08 16:40:56 357042066469132 537019040002 0001 0001 Auto 0.00 0.00 0.00 0.00 0.00 0.00 0.00 0.00 118.77 0.00 1.00 60.02 0.00 0.00 0.00 0.00 0.00 0.00
2024-04-08 16:55:56 357042066469132 537019040002 0001 0001 Auto 0.00 0.00 0.00 0.00 0.00 0.00 0.00 0.00 118.59 0.00 1.00 60.03 0.00 0.00 0.00 0.00 0.00 0.00
2024-04-08 17:10:56 357042066469132 537019040002 0001 0001 Auto 0.00 0.00 0.00 0.00 0.00 0.00 0.00 0.00 117.20 0.00 1.00 60.00 0.00 0.00 0.00 0.00 0.00 0.00
2024-04-08 17:25:56 357042066469132 537019040002 0001 0001 Auto 0.00 0.00 0.00 0.00 0.00 0.00 0.00 0.00 117.18 0.00 1.00 60.01 0.00 0.00 0.00 0.00 0.00 0.00
2024-04-08 17:40:56 357042066469132 537019040002 0001 0001 Auto 0.00 0.00 0.00 0.00 0.00 0.00 0.00 0.00 117.22 0.00 1.00 60.02 0.00 0.00 0.00 0.00 0.00 0.00
2024-04-08 17:55:56 357042066469132 537019040002 0001 0001 Auto 0.00 0.00 0.00 0.00 0.00 0.00 0.00 0.00 117.52 0.00 1.00 60.07 0.00 0.00 0.00 0.00 0.00 0.00
2024-04-08 18:10:56 357042066469132 537019040002 0001 0001 Auto 0.00 0.00 0.00 0.00 0.00 0.00 0.00 0.00 117.63 0.00 1.00 60.04 0.00 0.00 0.00 0.00 0.00 0.00
2024-04-08 18:25:56 357042066469132 537019040002 0001 0001 Auto 0.00 0.00 0.00 0.00 0.00 0.00 0.00 0.00 117.73 0.00 1.00 60.07 0.00 0.00 0.00 0.00 0.00 0.00
2024-04-08 18:40:56 357042066469132 537019040002 0001 0001 Auto 0.00 0.00 0.00 0.00 0.00 0.00 0.00 0.00 115.60 0.00 1.00 60.03 0.00 0.00 0.00 0.00 0.00 0.00
2024-04-08 18:55:56 357042066469132 537019040002 0001 0001 Auto 0.00 0.00 0.00 0.00 0.00 0.00 0.00 0.00 117.34 0.00 1.00 60.03 0.00 0.00 0.00 0.00 0.00 0.00
2024-04-08 19:10:56 357042066469132 537019040002 0001 0001 Auto 0.00 0.00 0.00 0.00 0.00 0.00 0.00 0.00 115.55 0.00 1.00 60.02 0.00 0.00 0.00 0.00 0.00 0.00
2024-04-08 19:25:56 357042066469132 537019040002 0001 0001 Auto 0.00 0.00 0.00 0.00 0.00 0.00 0.00 0.00 116.34 0.00 1.00 60.09 0.00 0.00 0.00 0.00 0.00 0.00
2024-04-08 19:40:56 357042066469132 537019040002 0001 0001 Auto 0.00 0.00 0.00 0.00 0.00 0.00 0.00 0.00 114.58 0.00 1.00 60.07 0.00 0.00 0.00 0.00 0.00 0.00
2024-04-08 19:55:56 357042066469132 537019040002 0001 0001 Auto 0.00 0.00 0.00 0.00 0.00 0.00 0.00 0.00 115.35 0.00 1.00 60.06 0.00 0.00 0.00 0.00 0.00 0.00
2024-04-08 20:10:57 357042066469132 537019040002 0001 0001 Auto 0.00 0.00 0.00 0.00 0.00 0.00 0.00 0.00 114.15 0.00 1.00 60.06 0.00 0.00 0.00 0.00 0.00 0.00
2024-04-08 20:25:56 357042066469132 537019040002 0001 0001 Auto 0.00 0.00 0.00 0.00 0.00 0.00 0.00 0.00 115.80 0.00 1.00 60.07 0.00 0.00 0.00 0.00 0.00 0.00
2024-04-08 20:40:56 357042066469132 537019040002 0001 0001 Auto 0.00 0.00 0.00 0.00 0.00 0.00 0.00 0.00 116.70 0.00 1.00 60.06 0.00 0.00 0.00 0.00 0.00 0.00
2024-04-08 20:55:56 357042066469132 537019040002 0001 0001 Auto 0.00 0.00 0.00 0.00 0.00 0.00 0.00 0.00 115.04 0.00 1.00 60.01 0.00 0.00 0.00 0.00 0.00 0.00
2024-04-08 21:10:56 357042066469132 537019040002 0001 0001 Auto 0.00 0.00 0.00 0.00 0.00 0.00 0.00 0.00 116.55 0.00 1.00 60.10 0.00 0.00 0.00 0.00 0.00 0.00
2024-04-08 21:25:56 357042066469132 537019040002 0001 0001 Auto 0.00 0.00 0.00 0.00 0.00 0.00 0.00 0.00 116.49 0.00 1.00 60.13 0.00 0.00 0.00 0.00 0.00 0.00
2024-04-08 21:40:56 357042066469132 537019040002 0001 0001 Auto 0.00 0.00 0.00 0.00 0.00 0.00 0.00 0.00 115.83 0.00 1.00 60.00 0.00 0.00 0.00 0.00 0.00 0.00
2024-04-08 21:55:56 357042066469132 537019040002 0001 0001 Auto 0.00 0.00 0.00 0.00 0.00 0.00 0.00 0.00 115.21 0.00 1.00 59.99 0.00 0.00 0.00 0.00 0.00 0.00
2024-04-08 22:10:56 357042066469132 537019040002 0001 0001 Auto 0.00 0.00 0.00 0.00 0.00 0.00 0.00 0.00 116.02 0.00 1.00 60.01 0.00 0.00 0.00 0.00 0.00 0.00
2024-04-08 22:25:56 357042066469132 537019040002 0001 0001 Auto 0.00 0.00 0.00 0.00 0.00 0.00 0.00 0.00 115.77 0.00 1.00 60.06 0.00 0.00 0.00 0.00 0.00 0.00
2024-04-08 22:40:55 357042066469132 537019040002 0001 0001 Auto 0.00 0.00 0.00 0.00 0.00 0.00 0.00 0.00 115.19 0.00 1.00 60.06 0.00 0.00 0.00 0.00 0.00 0.00
2024-04-08 22:55:56 357042066469132 537019040002 0001 0001 Auto 0.00 0.00 0.00 0.00 0.00 0.00 0.00 0.00 114.69 0.00 1.00 60.06 0.00 0.00 0.00 0.00 0.00 0.00
2024-04-08 23:10:55 357042066469132 537019040002 0001 0001 Auto 0.00 0.00 0.00 0.00 0.00 0.00 0.00 0.00 114.84 0.00 1.00 60.03 0.00 0.00 0.00 0.00 0.00 0.00
2024-04-08 23:25:55 357042066469132 537019040002 0001 0001 Auto 0.00 0.00 0.00 0.00 0.00 0.00 0.00 0.00 114.44 0.00 1.00 60.04 0.00 0.00 0.00 0.00 0.00 0.00
2024-04-08 23:40:55 357042066469132 537019040002 0001 0001 Auto 0.00 0.00 0.00 0.00 0.00 0.00 0.00 0.00 115.47 0.00 1.00 60.00 0.00 0.00 0.00 0.00 0.00 0.00
2024-04-08 23:55:55 357042066469132 537019040002 0001 0001 Auto 0.00 0.00 0.00 0.00 0.00 0.00 0.00 0.00 114.69 0.00 1.00 60.04 0.00 0.00 0.00 0.00 0.00 0.00
2024-04-09 00:10:55 357042066469132 537019040002 0001 0001 Auto 0.00 0.00 0.00 0.00 0.00 0.00 0.00 0.00 116.10 0.00 1.00 60.02 0.00 0.00 0.00 0.00 0.00 0.00
2024-04-09 00:25:55 357042066469132 537019040002 0001 0001 Auto 0.00 0.00 0.00 0.00 0.00 0.00 0.00 0.00 115.33 0.00 1.00 59.99 0.00 0.00 0.00 0.00 0.00 0.00
2024-04-09 00:40:55 357042066469132 537019040002 0001 0001 Auto 0.00 0.00 0.00 0.00 0.00 0.00 0.00 0.00 116.10 0.00 1.00 60.08 0.00 0.00 0.00 0.00 0.00 0.00
2024-04-09 00:55:55 357042066469132 537019040002 0001 0001 Auto 0.00 0.00 0.00 0.00 0.00 0.00 0.00 0.00 117.49 0.00 1.00 60.09 0.00 0.00 0.00 0.00 0.00 0.00
2024-04-09 01:10:55 357042066469132 537019040002 0001 0001 Auto 0.00 0.00 0.00 0.00 0.00 0.00 0.00 0.00 117.86 0.00 1.00 60.05 0.00 0.00 0.00 0.00 0.00 0.00
2024-04-09 01:25:55 357042066469132 537019040002 0001 0001 Auto 0.00 0.00 0.00 0.00 0.00 0.00 0.00 0.00 115.08 0.00 1.00 60.01 0.00 0.00 0.00 0.00 0.00 0.00
2024-04-09 01:40:55 357042066469132 537019040002 0001 0001 Auto 0.00 0.00 0.00 0.00 0.00 0.00 0.00 0.00 116.12 0.00 1.00 60.05 0.00 0.00 0.00 0.00 0.00 0.00
2024-04-09 01:55:57 357042066469132 537019040002 0001 0001 Auto 0.00 0.00 0.00 0.00 0.00 0.00 0.00 0.00 117.21 0.00 1.00 60.06 0.00 0.00 0.00 0.00 0.00 0.00
2024-04-09 02:10:55 357042066469132 537019040002 0001 0001 Auto 0.00 0.00 0.00 0.00 0.00 0.00 0.00 0.00 117.65 0.00 1.00 60.06 0.00 0.00 0.00 0.00 0.00 0.00
2024-04-09 02:25:55 357042066469132 537019040002 0001 0001 Auto 0.00 0.00 0.00 0.00 0.00 0.00 0.00 0.00 118.63 0.00 1.00 60.04 0.00 0.00 0.00 0.00 0.00 0.00
2024-04-09 02:40:54 357042066469132 537019040002 0001 0001 Auto 0.00 0.00 0.00 0.00 0.00 0.00 0.00 0.00 118.00 0.00 1.00 60.01 0.00 0.00 0.00 0.00 0.00 0.00
2024-04-09 02:55:55 357042066469132 537019040002 0001 0001 Auto 0.00 0.00 0.00 0.00 0.00 0.00 0.00 0.00 118.03 0.00 1.00 60.04 0.00 0.00 0.00 0.00 0.00 0.00
2024-04-09 03:10:55 357042066469132 537019040002 0001 0001 Auto 0.00 0.00 0.00 0.00 0.00 0.00 0.00 0.00 117.69 0.00 1.00 60.03 0.00 0.00 0.00 0.00 0.00 0.00
2024-04-09 03:25:55 357042066469132 537019040002 0001 0001 Auto 0.00 0.00 0.00 0.00 0.00 0.00 0.00 0.00 115.93 0.00 1.00 60.05 0.00 0.00 0.00 0.00 0.00 0.00
2024-04-09 03:40:55 357042066469132 537019040002 0001 0001 Auto 0.00 0.00 0.00 0.00 0.00 0.00 0.00 0.00 118.26 0.00 1.00 59.99 0.00 0.00 0.00 0.00 0.00 0.00
2024-04-09 03:55:55 357042066469132 537019040002 0001 0001 Auto 0.00 0.00 0.00 0.00 0.00 0.00 0.00 0.00 116.43 0.00 1.00 60.03 0.00 0.00 0.00 0.00 0.00 0.00
2024-04-09 04:10:55 357042066469132 537019040002 0001 0001 Auto 0.00 0.00 0.00 0.00 0.00 0.00 0.00 0.00 119.49 0.00 1.00 60.01 0.00 0.00 0.00 0.00 0.00 0.00
2024-04-09 04:25:55 357042066469132 537019040002 0001 0001 Auto 0.00 0.00 0.00 0.00 0.00 0.00 0.00 0.00 118.53 0.00 1.00 60.03 0.00 0.00 0.00 0.00 0.00 0.00
2024-04-09 04:40:55 357042066469132 537019040002 0001 0001 Auto 0.00 0.00 0.00 0.00 0.00 0.00 0.00 0.00 116.53 0.00 1.00 59.97 0.00 0.00 0.00 0.00 0.00 0.00
2024-04-09 04:55:55 357042066469132 537019040002 0001 0001 Auto 0.00 0.00 0.00 0.00 0.00 0.00 0.00 0.00 116.85 0.00 1.00 60.03 0.00 0.00 0.00 0.00 0.00 0.00
2024-04-09 05:10:55 357042066469132 537019040002 0001 0001 Auto 0.00 0.00 0.00 0.00 0.00 0.00 0.00 0.00 118.36 0.00 1.00 59.98 0.00 0.00 0.00 0.00 0.00 0.00
2024-04-09 05:25:55 357042066469132 537019040002 0001 0001 Auto 0.00 0.00 0.00 0.00 0.00 0.00 0.00 0.00 117.76 0.00 1.00 60.08 0.00 0.00 0.00 0.00 0.00 0.00
2024-04-09 05:40:54 357042066469132 537019040002 0001 0001 Auto 0.00 0.00 0.00 0.00 0.00 0.00 0.00 0.00 118.94 0.00 1.00 60.06 0.00 0.00 0.00 0.00 0.00 0.00
2024-04-09 05:55:54 357042066469132 537019040002 0001 0001 Auto 0.00 0.00 0.00 0.00 0.00 0.00 0.00 0.00 118.84 0.00 1.00 60.04 0.00 0.00 0.00 0.00 0.00 0.00
2024-04-09 06:10:54 357042066469132 537019040002 0001 0001 Auto 0.00 0.00 0.00 0.00 0.00 0.00 0.00 0.00 119.53 0.00 1.00 60.09 0.00 0.00 0.00 0.00 0.00 0.00
2024-04-09 06:25:54 357042066469132 537019040002 0001 0001 Auto 0.00 0.00 0.00 0.00 0.00 0.00 0.00 0.00 120.42 0.00 1.00 60.05 0.00 0.00 0.00 0.00 0.00 0.00
2024-04-09 06:40:54 357042066469132 537019040002 0001 0001 Auto 0.00 0.00 0.00 0.00 0.00 0.00 0.00 0.00 118.78 0.00 1.00 60.02 0.00 0.00 0.00 0.00 0.00 0.00
2024-04-09 06:55:54 357042066469132 537019040002 0001 0001 Auto 0.00 0.00 0.00 0.00 0.00 0.00 0.00 0.00 119.05 0.00 1.00 60.02 0.00 0.00 0.00 0.00 0.00 0.00
2024-04-09 07:10:54 357042066469132 537019040002 0001 0001 Auto 0.00 0.00 0.00 0.00 0.00 0.00 0.00 0.00 119.06 0.00 1.00 60.04 0.00 0.00 0.00 0.00 0.00 0.00
2024-04-09 07:25:54 357042066469132 537019040002 0001 0001 Auto 0.00 0.00 0.00 0.00 0.00 0.00 0.00 0.00 117.26 0.00 1.00 60.01 0.00 0.00 0.00 0.00 0.00 0.00
2024-04-09 07:40:55 357042066469132 537019040002 0001 0001 Auto 0.00 0.00 0.00 0.00 0.00 0.00 0.00 0.00 115.29 0.00 1.00 60.05 0.00 0.00 0.00 0.00 0.00 0.00
2024-04-09 07:55:54 357042066469132 537019040002 0001 0001 Auto 0.00 0.00 0.00 0.00 0.00 0.00 0.00 0.00 117.74 0.00 1.00 60.06 0.00 0.00 0.00 0.00 0.00 0.00
2024-04-09 08:25:43 357042066469132 537019040002 0001 0001 Auto 0.00 0.00 0.00 0.00 0.00 0.00 0.00 0.00 124.83 0.00 1.00 60.01 0.00 0.00 0.00 0.00 0.00 0.00
2024-04-09 08:40:44 357042066469132 537019040002 0001 0001 Auto 0.00 0.00 0.00 0.00 0.00 0.00 0.00 0.00 112.55 0.00 1.00 60.05 0.00 0.00 0.00 0.00 0.00 0.00
2024-04-09 08:55:43 357042066469132 537019040002 0001 0001 Auto 0.00 0.00 0.00 0.00 0.00 0.00 0.00 0.00 113.93 0.00 1.00 60.06 0.00 0.00 0.00 0.00 0.00 0.00
2024-04-09 09:10:44 357042066469132 537019040002 0001 0001 Auto 0.00 0.00 0.00 0.00 0.00 0.00 0.00 0.00 118.63 0.00 1.00 60.06 0.00 0.00 0.00 0.00 0.00 0.00
2024-04-09 09:25:44 357042066469132 537019040002 0001 0001 Auto 0.00 0.00 0.00 0.00 0.00 0.00 0.00 0.00 116.43 0.00 1.00 60.05 0.00 0.00 0.00 0.00 0.00 0.00
2024-04-09 09:40:47 357042066469132 537019040002 0001 0001 Auto 0.00 0.00 0.00 0.00 0.00 0.00 0.00 0.00 115.72 0.00 1.00 60.00 0.00 0.00 0.00 0.00 0.00 0.00
2024-04-09 09:55:43 357042066469132 537019040002 0001 0001 Auto 0.00 0.00 0.00 0.00 0.00 0.00 0.00 0.00 115.34 0.00 1.00 60.05 0.00 0.00 0.00 0.00 0.00 0.00
2024-04-09 10:10:43 357042066469132 537019040002 0001 0001 Auto 0.00 0.00 0.00 0.00 0.00 0.00 0.00 0.00 113.41 0.00 1.00 60.05 0.00 0.00 0.00 0.00 0.00 0.00
2024-04-09 10:25:44 357042066469132 537019040002 0001 0001 Auto 0.00 0.00 0.00 0.00 0.00 0.00 0.00 0.00 113.43 0.00 1.00 60.03 0.00 0.00 0.00 0.00 0.00 0.00
2024-04-09 10:40:44 357042066469132 537019040002 0001 0001 Auto 0.00 0.00 0.00 0.00 0.00 0.00 0.00 0.00 114.71 0.00 1.00 60.01 0.00 0.00 0.00 0.00 0.00 0.00
2024-04-09 10:55:43 357042066469132 537019040002 0001 0001 Auto 0.00 0.00 0.00 0.00 0.00 0.00 0.00 0.00 112.61 0.00 1.00 60.04 0.00 0.00 0.00 0.00 0.00 0.00
2024-04-09 11:10:43 357042066469132 537019040002 0001 0001 Auto 0.00 0.00 0.00 0.00 0.00 0.00 0.00 0.00 113.11 0.00 1.00 60.04 0.00 0.00 0.00 0.00 0.00 0.00
2024-04-09 11:25:43 357042066469132 537019040002 0001 0001 Auto 0.00 0.00 0.00 0.00 0.00 0.00 0.00 0.00 114.14 0.00 1.00 60.05 0.00 0.00 0.00 0.00 0.00 0.00
2024-04-09 11:40:43 357042066469132 537019040002 0001 0001 Auto 0.00 0.00 0.00 0.00 0.00 0.00 0.00 0.00 113.32 0.00 1.00 60.02 0.00 0.00 0.00 0.00 0.00 0.00
2024-04-09 11:55:43 357042066469132 537019040002 0001 0001 Auto 0.00 0.00 0.00 0.00 0.00 0.00 0.00 0.00 112.24 0.00 1.00 60.09 0.00 0.00 0.00 0.00 0.00 0.00
2024-04-09 12:10:43 357042066469132 537019040002 0001 0001 Auto 0.00 0.00 0.00 0.00 0.00 0.00 0.00 0.00 113.58 0.00 1.00 60.02 0.00 0.00 0.00 0.00 0.00 0.00
2024-04-09 12:25:43 357042066469132 537019040002 0001 0001 Auto 0.00 0.00 0.00 0.00 0.00 0.00 0.00 0.00 114.75 0.00 1.00 60.09 0.00 0.00 0.00 0.00 0.00 0.00
2024-04-09 12:40:43 357042066469132 537019040002 0001 0001 Auto 0.00 0.00 0.00 0.00 0.00 0.00 0.00 0.00 113.22 0.00 1.00 60.02 0.00 0.00 0.00 0.00 0.00 0.00
2024-04-09 12:55:43 357042066469132 537019040002 0001 0001 Auto 0.00 0.00 0.00 0.00 0.00 0.00 0.00 0.00 113.38 0.00 1.00 60.03 0.00 0.00 0.00 0.00 0.00 0.00
2024-04-09 13:10:43 357042066469132 537019040002 0001 0001 Auto 0.00 0.00 0.00 0.00 0.00 0.00 0.00 0.00 106.04 0.00 1.00 60.00 0.00 0.00 0.00 0.00 0.00 0.00
2024-04-09 13:25:43 357042066469132 537019040002 0001 0001 Auto 0.00 0.00 0.00 0.00 0.00 0.00 0.00 0.00 112.96 0.00 1.00 60.06 0.00 0.00 0.00 0.00 0.00 0.00
2024-04-09 13:40:44 357042066469132 537019040002 0001 0001 Auto 0.00 0.00 0.00 0.00 0.00 0.00 0.00 0.00 110.91 0.00 1.00 60.05 0.00 0.00 0.00 0.00 0.00 0.00
2024-04-09 13:55:43 357042066469132 537019040002 0001 0001 Auto 0.00 0.00 0.00 0.00 0.00 0.00 0.00 0.00 111.79 0.00 1.00 60.02 0.00 0.00 0.00 0.00 0.00 0.00
2024-04-09 14:10:43 357042066469132 537019040002 0001 0001 Auto 0.00 0.00 0.00 0.00 0.00 0.00 0.00 0.00 111.93 0.00 1.00 60.07 0.00 0.00 0.00 0.00 0.00 0.00
2024-04-09 14:25:43 357042066469132 537019040002 0001 0001 Auto 0.00 0.00 0.00 0.00 0.00 0.00 0.00 0.00 113.87 0.00 1.00 60.06 0.00 0.00 0.00 0.00 0.00 0.00
2024-04-09 14:53:15 357042066469132 537019040002 0001 0001 Auto 0.00 0.00 0.00 0.00 0.00 0.00 0.00 0.00 114.45 113.27 1.00 60.07 0.00 0.00 0.00 0.00 0.00 0.00
2024-04-09 15:08:16 357042066469132 537019040002 0001 0001 Auto 0.00 0.00 0.00 0.00 0.00 0.00 0.00 0.00 109.38 114.71 1.00 60.08 0.00 0.00 0.00 0.00 0.00 0.00
2024-04-09 15:23:16 357042066469132 537019040002 0001 0001 Auto 0.00 0.00 0.00 0.00 0.00 0.00 0.00 0.00 112.97 112.49 1.00 60.09 0.00 0.00 0.00 0.00 0.00 0.00
2024-04-09 15:38:16 357042066469132 537019040002 0001 0001 Auto 0.00 0.00 0.00 0.00 0.00 0.00 0.00 0.00 114.95 112.94 1.00 60.06 0.00 0.00 0.00 0.00 0.00 0.00
2024-04-09 15:53:16 357042066469132 537019040002 0001 0001 Auto 0.00 0.00 0.00 0.00 0.00 0.00 0.00 0.00 114.04 113.21 1.00 60.01 0.00 0.00 0.00 0.00 0.00 0.00
2024-04-09 16:08:16 357042066469132 537019040002 0001 0001 Auto 0.00 0.00 0.00 0.00 0.00 0.00 0.00 0.00 114.31 113.14 1.00 60.11 0.00 0.00 0.00 0.00 0.00 0.00
2024-04-09 16:23:16 357042066469132 537019040002 0001 0001 Auto 0.00 0.00 0.00 0.00 0.00 0.00 0.00 0.00 115.04 115.74 1.00 60.06 0.00 0.00 0.00 0.00 0.00 0.00
2024-04-09 16:38:16 357042066469132 537019040002 0001 0001 Auto 0.00 0.00 0.00 0.00 0.00 0.00 0.00 0.00 115.82 115.66 1.00 60.04 0.00 0.00 0.00 0.00 0.00 0.00
2024-04-09 16:53:16 357042066469132 537019040002 0001 0001 Auto 0.00 0.00 0.00 0.00 0.00 0.00 0.00 0.00 116.42 115.00 1.00 60.05 0.00 0.00 0.00 0.00 0.00 0.00
2024-04-09 17:08:17 357042066469132 537019040002 0001 0001 Auto 0.00 0.00 0.00 0.00 0.00 0.00 0.00 0.00 118.11 117.64 1.00 60.07 0.00 0.00 0.00 0.00 0.00 0.00
2024-04-09 17:23:16 357042066469132 537019040002 0001 0001 Auto 0.00 0.00 0.00 0.00 0.00 0.00 0.00 0.00 116.25 115.76 1.00 60.00 0.00 0.00 0.00 0.00 0.00 0.00
2024-04-09 17:38:16 357042066469132 537019040002 0001 0001 Auto 0.00 0.00 0.00 0.00 0.00 0.00 0.00 0.00 119.31 116.58 1.00 60.03 0.00 0.00 0.00 0.00 0.00 0.00
2024-04-09 17:53:16 357042066469132 537019040002 0001 0001 Auto 0.00 0.00 0.00 0.00 0.00 0.00 0.00 0.00 120.48 116.42 1.00 60.08 0.00 0.00 0.00 0.00 0.00 0.00
2024-04-09 18:08:16 357042066469132 537019040002 0001 0001 Auto 0.00 0.00 0.00 0.00 0.00 0.00 0.00 0.00 120.15 117.47 1.00 60.10 0.00 0.00 0.00 0.00 0.00 0.00
2024-04-09 18:23:16 357042066469132 537019040002 0001 0001 Auto 0.00 0.00 0.00 0.00 0.00 0.00 0.00 0.00 118.34 117.34 1.00 59.99 0.00 0.00 0.00 0.00 0.00 0.00
2024-04-09 18:38:17 357042066469132 537019040002 0001 0001 Auto 0.00 0.00 0.00 0.00 0.00 0.00 0.00 0.00 116.35 117.55 1.00 60.07 0.00 0.00 0.00 0.00 0.00 0.00
2024-04-09 18:53:16 357042066469132 537019040002 0001 0001 Auto 0.00 0.00 0.00 0.00 0.00 0.00 0.00 0.00 119.32 117.79 1.00 60.06 0.00 0.00 0.00 0.00 0.00 0.00
2024-04-09 19:08:17 357042066469132 537019040002 0001 0001 Auto 0.00 0.00 0.00 0.00 0.00 0.00 0.00 0.00 119.52 117.67 1.00 60.07 0.00 0.00 0.00 0.00 0.00 0.00
2024-04-09 19:23:16 357042066469132 537019040002 0001 0001 Auto 0.00 0.00 0.00 0.00 0.00 0.00 0.00 0.00 118.74 116.39 1.00 60.05 0.00 0.00 0.00 0.00 0.00 0.00
2024-04-09 19:38:17 357042066469132 537019040002 0001 0001 Auto 0.00 0.00 0.00 0.00 0.00 0.00 0.00 0.00 121.42 118.55 1.00 60.04 0.00 0.00 0.00 0.00 0.00 0.00
2024-04-09 19:53:16 357042066469132 537019040002 0001 0001 Auto 0.00 0.00 0.00 0.00 0.00 0.00 0.00 0.00 121.22 117.58 1.00 60.02 0.00 0.00 0.00 0.00 0.00 0.00
2024-04-09 20:08:16 357042066469132 537019040002 0001 0001 Auto 0.00 0.00 0.00 0.00 0.00 0.00 0.00 0.00 117.76 119.38 1.00 60.06 0.00 0.00 0.00 0.00 0.00 0.00
2024-04-09 20:23:16 357042066469132 537019040002 0001 0001 Auto 0.00 0.00 0.00 0.00 0.00 0.00 0.00 0.00 120.80 117.35 1.00 60.05 0.00 0.00 0.00 0.00 0.00 0.00
2024-04-09 20:38:16 357042066469132 537019040002 0001 0001 Auto 0.00 0.00 0.00 0.00 0.00 0.00 0.00 0.00 120.51 116.76 1.00 60.05 0.00 0.00 0.00 0.00 0.00 0.00
2024-04-09 20:53:16 357042066469132 537019040002 0001 0001 Auto 0.00 0.00 0.00 0.00 0.00 0.00 0.00 0.00 120.53 117.00 1.00 60.08 0.00 0.00 0.00 0.00 0.00 0.00
2024-04-09 21:08:16 357042066469132 537019040002 0001 0001 Auto 0.00 0.00 0.00 0.00 0.00 0.00 0.00 0.00 121.13 116.02 1.00 60.04 0.00 0.00 0.00 0.00 0.00 0.00
2024-04-09 21:23:16 357042066469132 537019040002 0001 0001 Auto 0.00 0.00 0.00 0.00 0.00 0.00 0.00 0.00 121.96 115.01 1.00 60.08 0.00 0.00 0.00 0.00 0.00 0.00
2024-04-09 21:38:16 357042066469132 537019040002 0001 0001 Auto 0.00 0.00 0.00 0.00 0.00 0.00 0.00 0.00 120.26 116.12 1.00 60.04 0.00 0.00 0.00 0.00 0.00 0.00
2024-04-09 21:53:16 357042066469132 537019040002 0001 0001 Auto 0.00 0.00 0.00 0.00 0.00 0.00 0.00 0.00 119.29 116.04 1.00 60.02 0.00 0.00 0.00 0.00 0.00 0.00
2024-04-09 22:08:16 357042066469132 537019040002 0001 0001 Auto 0.00 0.00 0.00 0.00 0.00 0.00 0.00 0.00 119.57 116.64 1.00 60.10 0.00 0.00 0.00 0.00 0.00 0.00
2024-04-09 22:23:16 357042066469132 537019040002 0001 0001 Auto 0.00 0.00 0.00 0.00 0.00 0.00 0.00 0.00 119.90 116.55 1.00 60.05 0.00 0.00 0.00 0.00 0.00 0.00
2024-04-09 22:38:16 357042066469132 537019040002 0001 0001 Auto 0.00 0.00 0.00 0.00 0.00 0.00 0.00 0.00 119.14 114.94 1.00 60.07 0.00 0.00 0.00 0.00 0.00 0.00
2024-04-09 22:53:16 357042066469132 537019040002 0001 0001 Auto 0.00 0.00 0.00 0.00 0.00 0.00 0.00 0.00 119.46 114.27 1.00 60.06 0.00 0.00 0.00 0.00 0.00 0.00
2024-04-09 23:08:16 357042066469132 537019040002 0001 0001 Auto 0.00 0.00 0.00 0.00 0.00 0.00 0.00 0.00 120.35 113.87 1.00 60.06 0.00 0.00 0.00 0.00 0.00 0.00
2024-04-09 23:23:15 357042066469132 537019040002 0001 0001 Auto 0.00 0.00 0.00 0.00 0.00 0.00 0.00 0.00 120.04 116.94 1.00 60.11 0.00 0.00 0.00 0.00 0.00 0.00
2024-04-09 23:38:16 357042066469132 537019040002 0001 0001 Auto 0.00 0.00 0.00 0.00 0.00 0.00 0.00 0.00 119.98 115.51 1.00 60.10 0.00 0.00 0.00 0.00 0.00 0.00
2024-04-09 23:53:15 357042066469132 537019040002 0001 0001 Auto 0.00 0.00 0.00 0.00 0.00 0.00 0.00 0.00 118.65 115.65 1.00 60.01 0.00 0.00 0.00 0.00 0.00 0.00
2024-04-10 00:08:15 357042066469132 537019040002 0001 0001 Auto 0.00 0.00 0.00 0.00 0.00 0.00 0.00 0.00 117.88 113.72 1.00 60.08 0.00 0.00 0.00 0.00 0.00 0.00
2024-04-10 00:23:15 357042066469132 537019040002 0001 0001 Auto 0.00 0.00 0.00 0.00 0.00 0.00 0.00 0.00 117.68 114.16 1.00 60.07 0.00 0.00 0.00 0.00 0.00 0.00
2024-04-10 00:38:16 357042066469132 537019040002 0001 0001 Auto 0.00 0.00 0.00 0.00 0.00 0.00 0.00 0.00 117.94 113.38 1.00 60.05 0.00 0.00 0.00 0.00 0.00 0.00
2024-04-10 00:53:15 357042066469132 537019040002 0001 0001 Auto 0.00 0.00 0.00 0.00 0.00 0.00 0.00 0.00 118.98 114.26 1.00 60.04 0.00 0.00 0.00 0.00 0.00 0.00
2024-04-10 01:08:15 357042066469132 537019040002 0001 0001 Auto 0.00 0.00 0.00 0.00 0.00 0.00 0.00 0.00 119.42 115.95 1.00 60.07 0.00 0.00 0.00 0.00 0.00 0.00
2024-04-10 01:23:15 357042066469132 537019040002 0001 0001 Auto 0.00 0.00 0.00 0.00 0.00 0.00 0.00 0.00 120.59 117.04 1.00 60.08 0.00 0.00 0.00 0.00 0.00 0.00
2024-04-10 01:38:16 357042066469132 537019040002 0001 0001 Auto 0.00 0.00 0.00 0.00 0.00 0.00 0.00 0.00 120.91 117.16 1.00 60.07 0.00 0.00 0.00 0.00 0.00 0.00
2024-04-10 01:53:15 357042066469132 537019040002 0001 0001 Auto 0.00 0.00 0.00 0.00 0.00 0.00 0.00 0.00 121.39 117.15 1.00 60.07 0.00 0.00 0.00 0.00 0.00 0.00
2024-04-10 02:08:15 357042066469132 537019040002 0001 0001 Auto 0.00 0.00 0.00 0.00 0.00 0.00 0.00 0.00 120.38 116.95 1.00 60.07 0.00 0.00 0.00 0.00 0.00 0.00
2024-04-10 02:23:15 357042066469132 537019040002 0001 0001 Auto 0.00 0.00 0.00 0.00 0.00 0.00 0.00 0.00 118.44 113.04 1.00 60.05 0.00 0.00 0.00 0.00 0.00 0.00
2024-04-10 02:38:15 357042066469132 537019040002 0001 0001 Auto 0.00 0.00 0.00 0.00 0.00 0.00 0.00 0.00 121.49 116.14 1.00 60.04 0.00 0.00 0.00 0.00 0.00 0.00
2024-04-10 02:53:15 357042066469132 537019040002 0001 0001 Auto 0.00 0.00 0.00 0.00 0.00 0.00 0.00 0.00 120.59 116.91 1.00 60.01 0.00 0.00 0.00 0.00 0.00 0.00
2024-04-10 03:08:15 357042066469132 537019040002 0001 0001 Auto 0.00 0.00 0.00 0.00 0.00 0.00 0.00 0.00 120.55 118.87 1.00 60.06 0.00 0.00 0.00 0.00 0.00 0.00
2024-04-10 03:23:15 357042066469132 537019040002 0001 0001 Auto 0.00 0.00 0.00 0.00 0.00 0.00 0.00 0.00 120.35 115.40 1.00 60.02 0.00 0.00 0.00 0.00 0.00 0.00
2024-04-10 03:38:16 357042066469132 537019040002 0001 0001 Auto 0.00 0.00 0.00 0.00 0.00 0.00 0.00 0.00 119.36 117.79 1.00 60.04 0.00 0.00 0.00 0.00 0.00 0.00
2024-04-10 03:53:15 357042066469132 537019040002 0001 0001 Auto 0.00 0.00 0.00 0.00 0.00 0.00 0.00 0.00 120.20 117.23 1.00 60.06 0.00 0.00 0.00 0.00 0.00 0.00
2024-04-10 04:08:15 357042066469132 537019040002 0001 0001 Auto 0.00 0.00 0.00 0.00 0.00 0.00 0.00 0.00 119.97 120.03 1.00 60.08 0.00 0.00 0.00 0.00 0.00 0.00
2024-04-10 04:23:15 357042066469132 537019040002 0001 0001 Auto 0.00 0.00 0.00 0.00 0.00 0.00 0.00 0.00 119.42 117.38 1.00 60.04 0.00 0.00 0.00 0.00 0.00 0.00
2024-04-10 04:38:15 357042066469132 537019040002 0001 0001 Auto 0.00 0.00 0.00 0.00 0.00 0.00 0.00 0.00 120.77 118.33 1.00 60.00 0.00 0.00 0.00 0.00 0.00 0.00
2024-04-10 04:53:16 357042066469132 537019040002 0001 0001 Auto 0.00 0.00 0.00 0.00 0.00 0.00 0.00 0.00 122.06 118.69 1.00 60.02 0.00 0.00 0.00 0.00 0.00 0.00
2024-04-10 05:08:15 357042066469132 537019040002 0001 0001 Auto 0.00 0.00 0.00 0.00 0.00 0.00 0.00 0.00 122.25 119.07 1.00 59.99 0.00 0.00 0.00 0.00 0.00 0.00
2024-04-10 05:23:15 357042066469132 537019040002 0001 0001 Auto 0.00 0.00 0.00 0.00 0.00 0.00 0.00 0.00 122.66 119.59 1.00 60.07 0.00 0.00 0.00 0.00 0.00 0.00
2024-04-10 05:38:15 357042066469132 537019040002 0001 0001 Auto 0.00 0.00 0.00 0.00 0.00 0.00 0.00 0.00 122.71 119.86 1.00 60.06 0.00 0.00 0.00 0.00 0.00 0.00
2024-04-10 05:53:15 357042066469132 537019040002 0001 0001 Auto 0.00 0.00 0.00 0.00 0.00 0.00 0.00 0.00 121.03 119.01 1.00 60.06 0.00 0.00 0.00 0.00 0.00 0.00
2024-04-10 06:08:15 357042066469132 537019040002 0001 0001 Auto 0.00 0.00 0.00 0.00 0.00 0.00 0.00 0.00 120.93 118.75 1.00 60.04 0.00 0.00 0.00 0.00 0.00 0.00
2024-04-10 06:23:14 357042066469132 537019040002 0001 0001 Auto 0.00 0.00 0.00 0.00 0.00 0.00 0.00 0.00 123.86 119.47 1.00 60.04 0.00 0.00 0.00 0.00 0.00 0.00
2024-04-10 06:38:15 357042066469132 537019040002 0001 0001 Auto 0.00 0.00 0.00 0.00 0.00 0.00 0.00 0.00 121.17 119.99 1.00 60.04 0.00 0.00 0.00 0.00 0.00 0.00
2024-04-10 06:53:15 357042066469132 537019040002 0001 0001 Auto 0.00 0.00 0.00 0.00 0.00 0.00 0.00 0.00 120.94 119.62 1.00 59.99 0.00 0.00 0.00 0.00 0.00 0.00
2024-04-10 07:08:15 357042066469132 537019040002 0001 0001 Auto 0.00 0.00 0.00 0.00 0.00 0.00 0.00 0.00 121.79 118.63 1.00 60.04 0.00 0.00 0.00 0.00 0.00 0.00
2024-04-10 07:23:15 357042066469132 537019040002 0001 0001 Auto 0.00 0.00 0.00 0.00 0.00 0.00 0.00 0.00 121.46 118.38 1.00 60.03 0.00 0.00 0.00 0.00 0.00 0.00
2024-04-10 07:38:14 357042066469132 537019040002 0001 0001 Auto 0.00 0.00 0.00 0.00 0.00 0.00 0.00 0.00 120.94 116.64 1.00 60.04 0.00 0.00 0.00 0.00 0.00 0.00
2024-04-10 07:53:14 357042066469132 537019040002 0001 0001 Auto 0.00 0.00 0.00 0.00 0.00 0.00 0.00 0.00 121.24 117.18 1.00 60.01 0.00 0.00 0.00 0.00 0.00 0.00
2024-04-10 08:08:15 357042066469132 537019040002 0001 0001 Auto 0.00 0.00 0.00 0.00 0.00 0.00 0.00 0.00 121.07 117.96 1.00 60.00 0.00 0.00 0.00 0.00 0.00 0.00
2024-04-10 08:23:15 357042066469132 537019040002 0001 0001 Auto 0.00 0.00 0.00 0.00 0.00 0.00 0.00 0.00 121.18 116.92 1.00 60.02 0.00 0.00 0.00 0.00 0.00 0.00
2024-04-10 08:38:15 357042066469132 537019040002 0001 0001 Auto 0.00 0.00 0.00 0.00 0.00 0.00 0.00 0.00 121.42 118.07 1.00 60.13 0.00 0.00 0.00 0.00 0.00 0.00
2024-04-10 08:53:15 357042066469132 537019040002 0001 0001 Auto 0.00 0.00 0.00 0.00 0.00 0.00 0.00 0.00 120.17 117.06 1.00 60.08 0.00 0.00 0.00 0.00 0.00 0.00
2024-04-10 09:08:15 357042066469132 537019040002 0001 0001 Auto 0.00 0.00 0.00 0.00 0.00 0.00 0.00 0.00 119.17 116.00 1.00 60.08 0.00 0.00 0.00 0.00 0.00 0.00
2024-04-10 09:23:15 357042066469132 537019040002 0001 0001 Auto 0.00 0.00 0.00 0.00 0.00 0.00 0.00 0.00 120.29 116.60 1.00 60.08 0.00 0.00 0.00 0.00 0.00 0.00
2024-04-10 09:38:14 357042066469132 537019040002 0001 0001 Auto 0.00 0.00 0.00 0.00 0.00 0.00 0.00 0.00 120.50 116.05 1.00 60.00 0.00 0.00 0.00 0.00 0.00 0.00
2024-04-10 09:53:17 357042066469132 537019040002 0001 0001 Auto 0.00 0.00 0.00 0.00 0.00 0.00 0.00 0.00 118.31 117.41 1.00 60.04 0.00 0.00 0.00 0.00 0.00 0.00
2024-04-10 10:08:14 357042066469132 537019040002 0001 0001 Auto 0.00 0.00 0.00 0.00 0.00 0.00 0.00 0.00 117.92 114.86 1.00 60.00 0.00 0.00 0.00 0.00 0.00 0.00
2024-04-10 10:23:14 357042066469132 537019040002 0001 0001 Auto 0.00 0.00 0.00 0.00 0.00 0.00 0.00 0.00 121.40 117.18 1.00 60.07 0.00 0.00 0.00 0.00 0.00 0.00
2024-04-10 10:38:14 357042066469132 537019040002 0001 0001 Auto 0.00 0.00 0.00 0.00 0.00 0.00 0.00 0.00 120.28 117.15 1.00 60.09 0.00 0.00 0.00 0.00 0.00 0.00
2024-04-10 10:53:14 357042066469132 537019040002 0001 0001 Auto 0.00 0.00 0.00 0.00 0.00 0.00 0.00 0.00 117.18 118.13 1.00 60.07 0.00 0.00 0.00 0.00 0.00 0.00
2024-04-10 11:08:15 357042066469132 537019040002 0001 0001 Auto 0.00 0.00 0.00 0.00 0.00 0.00 0.00 0.00 119.20 114.68 1.00 60.00 0.00 0.00 0.00 0.00 0.00 0.00
2024-04-10 11:23:14 357042066469132 537019040002 0001 0001 Auto 0.00 0.00 0.00 0.00 0.00 0.00 0.00 0.00 118.66 115.79 1.00 60.02 0.00 0.00 0.00 0.00 0.00 0.00
2024-04-10 11:38:15 357042066469132 537019040002 0001 0001 Auto 0.00 0.00 0.00 0.00 0.00 0.00 0.00 0.00 118.67 115.83 1.00 60.05 0.00 0.00 0.00 0.00 0.00 0.00
2024-04-10 11:53:14 357042066469132 537019040002 0001 0001 Auto 0.00 0.00 0.00 0.00 0.00 0.00 0.00 0.00 117.46 116.52 1.00 60.06 0.00 0.00 0.00 0.00 0.00 0.00
2024-04-10 12:08:14 357042066469132 537019040002 0001 0001 Auto 0.00 0.00 0.00 0.00 0.00 0.00 0.00 0.00 118.84 113.01 1.00 60.06 0.00 0.00 0.00 0.00 0.00 0.00
2024-04-10 12:23:14 357042066469132 537019040002 0001 0001 Auto 0.00 0.00 0.00 0.00 0.00 0.00 0.00 0.00 116.62 116.83 1.00 60.07 0.00 0.00 0.00 0.00 0.00 0.00
2024-04-10 12:38:14 357042066469132 537019040002 0001 0001 Auto 0.00 0.00 0.00 0.00 0.00 0.00 0.00 0.00 115.94 116.83 1.00 60.04 0.00 0.00 0.00 0.00 0.00 0.00
2024-04-10 12:53:14 357042066469132 537019040002 0001 0001 Auto 0.00 0.00 0.00 0.00 0.00 0.00 0.00 0.00 113.63 114.30 1.00 60.05 0.00 0.00 0.00 0.00 0.00 0.00
2024-04-10 13:08:14 357042066469132 537019040002 0001 0001 Auto 0.00 0.00 0.00 0.00 0.00 0.00 0.00 0.00 117.10 112.67 1.00 60.01 0.00 0.00 0.00 0.00 0.00 0.00
2024-04-10 13:23:14 357042066469132 537019040002 0001 0001 Auto 0.00 0.00 0.00 0.00 0.00 0.00 0.00 0.00 116.19 110.53 1.00 60.02 0.00 0.00 0.00 0.00 0.00 0.00
2024-04-10 13:38:14 357042066469132 537019040002 0001 0001 Auto 0.00 0.00 0.00 0.00 0.00 0.00 0.00 0.00 114.15 111.80 1.00 60.07 0.00 0.00 0.00 0.00 0.00 0.00
2024-04-10 13:53:13 357042066469132 537019040002 0001 0001 Auto 0.00 0.00 0.00 0.00 0.00 0.00 0.00 0.00 115.10 113.27 1.00 60.01 0.00 0.00 0.00 0.00 0.00 0.00
2024-04-10 14:08:14 357042066469132 537019040002 0001 0001 Auto 0.00 0.00 0.00 0.00 0.00 0.00 0.00 0.00 114.29 113.54 1.00 60.00 0.00 0.00 0.00 0.00 0.00 0.00
2024-04-10 14:23:13 357042066469132 537019040002 0001 0001 Auto 0.00 0.00 0.00 0.00 0.00 0.00 0.00 0.00 112.39 112.32 1.00 60.07 0.00 0.00 0.00 0.00 0.00 0.00
2024-04-10 14:38:14 357042066469132 537019040002 0001 0001 Auto 0.00 0.00 0.00 0.00 0.00 0.00 0.00 0.00 113.90 112.37 1.00 60.08 0.00 0.00 0.00 0.00 0.00 0.00
2024-04-10 14:53:14 357042066469132 537019040002 0001 0001 Auto 0.00 0.00 0.00 0.00 0.00 0.00 0.00 0.00 111.13 115.34 1.00 60.05 0.00 0.00 0.00 0.00 0.00 0.00
2024-04-10 15:08:14 357042066469132 537019040002 0001 0001 Auto 0.00 0.00 0.00 0.00 0.00 0.00 0.00 0.00 113.79 113.96 1.00 60.04 0.00 0.00 0.00 0.00 0.00 0.00
2024-04-10 15:23:14 357042066469132 537019040002 0001 0001 Auto 0.00 0.00 0.00 0.00 0.00 0.00 0.00 0.00 112.47 113.82 1.00 60.04 0.00 0.00 0.00 0.00 0.00 0.00
2024-04-10 15:38:14 357042066469132 537019040002 0001 0001 Auto 0.00 0.00 0.00 0.00 0.00 0.00 0.00 0.00 114.94 113.78 1.00 60.03 0.00 0.00 0.00 0.00 0.00 0.00
2024-04-10 15:53:14 357042066469132 537019040002 0001 0001 Auto 0.00 0.00 0.00 0.00 0.00 0.00 0.00 0.00 115.86 114.70 1.00 60.07 0.00 0.00 0.00 0.00 0.00 0.00
2024-04-10 16:08:13 357042066469132 537019040002 0001 0001 Auto 0.00 0.00 0.00 0.00 0.00 0.00 0.00 0.00 118.68 116.14 1.00 60.05 0.00 0.00 0.00 0.00 0.00 0.00
2024-04-10 16:23:13 357042066469132 537019040002 0001 0001 Auto 0.00 0.00 0.00 0.00 0.00 0.00 0.00 0.00 121.15 114.76 1.00 60.05 0.00 0.00 0.00 0.00 0.00 0.00
2024-04-10 16:38:14 357042066469132 537019040002 0001 0001 Auto 0.00 0.00 0.00 0.00 0.00 0.00 0.00 0.00 119.53 115.16 1.00 60.03 0.00 0.00 0.00 0.00 0.00 0.00
2024-04-10 16:53:13 357042066469132 537019040002 0001 0001 Auto 0.00 0.00 0.00 0.00 0.00 0.00 0.00 0.00 117.37 114.53 1.00 60.06 0.00 0.00 0.00 0.00 0.00 0.00
2024-04-10 17:08:14 357042066469132 537019040002 0001 0001 Auto 0.00 0.00 0.00 0.00 0.00 0.00 0.00 0.00 119.38 114.48 1.00 60.06 0.00 0.00 0.00 0.00 0.00 0.00
2024-04-10 17:23:13 357042066469132 537019040002 0001 0001 Auto 0.00 0.00 0.00 0.00 0.00 0.00 0.00 0.00 119.75 115.93 1.00 60.05 0.00 0.00 0.00 0.00 0.00 0.00
2024-04-10 17:38:13 357042066469132 537019040002 0001 0001 Auto 0.00 0.00 0.00 0.00 0.00 0.00 0.00 0.00 121.08 118.73 1.00 60.02 0.00 0.00 0.00 0.00 0.00 0.00
2024-04-10 17:53:14 357042066469132 537019040002 0001 0001 Auto 0.00 0.00 0.00 0.00 0.00 0.00 0.00 0.00 122.11 118.92 1.00 60.07 0.00 0.00 0.00 0.00 0.00 0.00
2024-04-10 18:08:13 357042066469132 537019040002 0001 0001 Auto 0.00 0.00 0.00 0.00 0.00 0.00 0.00 0.00 123.29 119.51 1.00 60.02 0.00 0.00 0.00 0.00 0.00 0.00
2024-04-10 18:23:13 357042066469132 537019040002 0001 0001 Auto 0.00 0.00 0.00 0.00 0.00 0.00 0.00 0.00 121.84 119.81 1.00 60.02 0.00 0.00 0.00 0.00 0.00 0.00
2024-04-10 18:38:13 357042066469132 537019040002 0001 0001 Auto 0.00 0.00 0.00 0.00 0.00 0.00 0.00 0.00 119.27 116.76 1.00 60.09 0.00 0.00 0.00 0.00 0.00 0.00
2024-04-10 18:53:13 357042066469132 537019040002 0001 0001 Auto 0.00 0.00 0.00 0.00 0.00 0.00 0.00 0.00 119.60 117.03 1.00 60.08 0.00 0.00 0.00 0.00 0.00 0.00
2024-04-10 19:08:14 357042066469132 537019040002 0001 0001 Auto 0.00 0.00 0.00 0.00 0.00 0.00 0.00 0.00 117.90 119.90 1.00 60.12 0.00 0.00 0.00 0.00 0.00 0.00
2024-04-10 19:23:13 357042066469132 537019040002 0001 0001 Auto 0.00 0.00 0.00 0.00 0.00 0.00 0.00 0.00 119.45 117.59 1.00 60.06 0.00 0.00 0.00 0.00 0.00 0.00
2024-04-10 19:38:13 357042066469132 537019040002 0001 0001 Auto 0.00 0.00 0.00 0.00 0.00 0.00 0.00 0.00 120.33 116.95 1.00 60.07 0.00 0.00 0.00 0.00 0.00 0.00
2024-04-10 19:53:13 357042066469132 537019040002 0001 0001 Auto 0.00 0.00 0.00 0.00 0.00 0.00 0.00 0.00 120.22 118.34 1.00 60.02 0.00 0.00 0.00 0.00 0.00 0.00
2024-04-10 20:08:13 357042066469132 537019040002 0001 0001 Auto 0.00 0.00 0.00 0.00 0.00 0.00 0.00 0.00 122.35 115.21 1.00 59.99 0.00 0.00 0.00 0.00 0.00 0.00
2024-04-10 20:23:13 357042066469132 537019040002 0001 0001 Auto 0.00 0.00 0.00 0.00 0.00 0.00 0.00 0.00 123.52 117.99 1.00 60.06 0.00 0.00 0.00 0.00 0.00 0.00
2024-04-10 20:38:13 357042066469132 537019040002 0001 0001 Auto 0.00 0.00 0.00 0.00 0.00 0.00 0.00 0.00 123.05 118.24 1.00 60.05 0.00 0.00 0.00 0.00 0.00 0.00
2024-04-10 20:53:13 357042066469132 537019040002 0001 0001 Auto 0.00 0.00 0.00 0.00 0.00 0.00 0.00 0.00 122.09 118.30 1.00 60.06 0.00 0.00 0.00 0.00 0.00 0.00
2024-04-10 21:08:13 357042066469132 537019040002 0001 0001 Auto 0.00 0.00 0.00 0.00 0.00 0.00 0.00 0.00 122.94 118.01 1.00 60.06 0.00 0.00 0.00 0.00 0.00 0.00
2024-04-10 21:23:13 357042066469132 537019040002 0001 0001 Auto 0.00 0.00 0.00 0.00 0.00 0.00 0.00 0.00 118.99 118.51 1.00 60.03 0.00 0.00 0.00 0.00 0.00 0.00
2024-04-10 21:38:12 357042066469132 537019040002 0001 0001 Auto 0.00 0.00 0.00 0.00 0.00 0.00 0.00 0.00 120.26 118.92 1.00 60.07 0.00 0.00 0.00 0.00 0.00 0.00
2024-04-10 21:53:13 357042066469132 537019040002 0001 0001 Auto 0.00 0.00 0.00 0.00 0.00 0.00 0.00 0.00 120.45 115.79 1.00 60.08 0.00 0.00 0.00 0.00 0.00 0.00
2024-04-10 22:08:13 357042066469132 537019040002 0001 0001 Auto 0.00 0.00 0.00 0.00 0.00 0.00 0.00 0.00 117.36 116.68 1.00 60.04 0.00 0.00 0.00 0.00 0.00 0.00
2024-04-10 22:23:13 357042066469132 537019040002 0001 0001 Auto 0.00 0.00 0.00 0.00 0.00 0.00 0.00 0.00 118.49 118.36 1.00 60.01 0.00 0.00 0.00 0.00 0.00 0.00
2024-04-10 22:38:13 357042066469132 537019040002 0001 0001 Auto 0.00 0.00 0.00 0.00 0.00 0.00 0.00 0.00 114.63 119.46 1.00 60.02 0.00 0.00 0.00 0.00 0.00 0.00
2024-04-10 22:53:13 357042066469132 537019040002 0001 0001 Auto 0.00 0.00 0.00 0.00 0.00 0.00 0.00 0.00 118.31 116.76 1.00 60.04 0.00 0.00 0.00 0.00 0.00 0.00
2024-04-10 23:08:13 357042066469132 537019040002 0001 0001 Auto 0.00 0.00 0.00 0.00 0.00 0.00 0.00 0.00 119.88 115.81 1.00 60.08 0.00 0.00 0.00 0.00 0.00 0.00
2024-04-10 23:23:13 357042066469132 537019040002 0001 0001 Auto 0.00 0.00 0.00 0.00 0.00 0.00 0.00 0.00 120.46 116.76 1.00 60.07 0.00 0.00 0.00 0.00 0.00 0.00
2024-04-10 23:38:13 357042066469132 537019040002 0001 0001 Auto 0.00 0.00 0.00 0.00 0.00 0.00 0.00 0.00 119.62 115.18 1.00 60.03 0.00 0.00 0.00 0.00 0.00 0.00
2024-04-10 23:53:13 357042066469132 537019040002 0001 0001 Auto 0.00 0.00 0.00 0.00 0.00 0.00 0.00 0.00 118.21 116.20 1.00 60.03 0.00 0.00 0.00 0.00 0.00 0.00
2024-04-11 00:08:13 357042066469132 537019040002 0001 0001 Auto 0.00 0.00 0.00 0.00 0.00 0.00 0.00 0.00 117.32 115.57 1.00 60.06 0.00 0.00 0.00 0.00 0.00 0.00
2024-04-11 00:23:13 357042066469132 537019040002 0001 0001 Auto 0.00 0.00 0.00 0.00 0.00 0.00 0.00 0.00 115.13 119.14 1.00 60.02 0.00 0.00 0.00 0.00 0.00 0.00
2024-04-11 00:38:13 357042066469132 537019040002 0001 0001 Auto 0.00 0.00 0.00 0.00 0.00 0.00 0.00 0.00 118.13 116.32 1.00 60.06 0.00 0.00 0.00 0.00 0.00 0.00
2024-04-11 00:53:13 357042066469132 537019040002 0001 0001 Auto 0.00 0.00 0.00 0.00 0.00 0.00 0.00 0.00 119.11 116.09 1.00 60.02 0.00 0.00 0.00 0.00 0.00 0.00
2024-04-11 01:08:13 357042066469132 537019040002 0001 0001 Auto 0.00 0.00 0.00 0.00 0.00 0.00 0.00 0.00 119.97 115.87 1.00 60.03 0.00 0.00 0.00 0.00 0.00 0.00
2024-04-11 01:23:12 357042066469132 537019040002 0001 0001 Auto 0.00 0.00 0.00 0.00 0.00 0.00 0.00 0.00 120.78 114.89 1.00 60.00 0.00 0.00 0.00 0.00 0.00 0.00
2024-04-11 01:38:13 357042066469132 537019040002 0001 0001 Auto 0.00 0.00 0.00 0.00 0.00 0.00 0.00 0.00 120.40 116.68 1.00 60.06 0.00 0.00 0.00 0.00 0.00 0.00
2024-04-11 01:53:13 357042066469132 537019040002 0001 0001 Auto 0.00 0.00 0.00 0.00 0.00 0.00 0.00 0.00 122.26 117.44 1.00 60.07 0.00 0.00 0.00 0.00 0.00 0.00
2024-04-11 02:08:12 357042066469132 537019040002 0001 0001 Auto 0.00 0.00 0.00 0.00 0.00 0.00 0.00 0.00 122.00 117.11 1.00 60.01 0.00 0.00 0.00 0.00 0.00 0.00
2024-04-11 02:23:12 357042066469132 537019040002 0001 0001 Auto 0.00 0.00 0.00 0.00 0.00 0.00 0.00 0.00 122.85 117.42 1.00 60.05 0.00 0.00 0.00 0.00 0.00 0.00
2024-04-11 02:38:12 357042066469132 537019040002 0001 0001 Auto 0.00 0.00 0.00 0.00 0.00 0.00 0.00 0.00 122.76 117.82 1.00 60.06 0.00 0.00 0.00 0.00 0.00 0.00
2024-04-11 02:53:12 357042066469132 537019040002 0001 0001 Auto 0.00 0.00 0.00 0.00 0.00 0.00 0.00 0.00 123.13 117.60 1.00 60.03 0.00 0.00 0.00 0.00 0.00 0.00
2024-04-11 03:08:13 357042066469132 537019040002 0001 0001 Auto 0.00 0.00 0.00 0.00 0.00 0.00 0.00 0.00 123.15 120.90 1.00 60.02 0.00 0.00 0.00 0.00 0.00 0.00
2024-04-11 03:23:12 357042066469132 537019040002 0001 0001 Auto 0.00 0.00 0.00 0.00 0.00 0.00 0.00 0.00 122.19 119.65 1.00 60.03 0.00 0.00 0.00 0.00 0.00 0.00
2024-04-11 03:38:12 357042066469132 537019040002 0001 0001 Auto 0.00 0.00 0.00 0.00 0.00 0.00 0.00 0.00 121.61 119.94 1.00 60.09 0.00 0.00 0.00 0.00 0.00 0.00
2024-04-11 03:53:12 357042066469132 537019040002 0001 0001 Auto 0.00 0.00 0.00 0.00 0.00 0.00 0.00 0.00 122.58 119.36 1.00 60.06 0.00 0.00 0.00 0.00 0.00 0.00
2024-04-11 04:08:12 357042066469132 537019040002 0001 0001 Auto 0.00 0.00 0.00 0.00 0.00 0.00 0.00 0.00 122.06 118.42 1.00 60.06 0.00 0.00 0.00 0.00 0.00 0.00
2024-04-11 04:23:12 357042066469132 537019040002 0001 0001 Auto 0.00 0.00 0.00 0.00 0.00 0.00 0.00 0.00 123.16 119.33 1.00 60.03 0.00 0.00 0.00 0.00 0.00 0.00
2024-04-11 04:38:12 357042066469132 537019040002 0001 0001 Auto 0.00 0.00 0.00 0.00 0.00 0.00 0.00 0.00 122.19 120.36 1.00 60.07 0.00 0.00 0.00 0.00 0.00 0.00
2024-04-11 04:53:13 357042066469132 537019040002 0001 0001 Auto 0.00 0.00 0.00 0.00 0.00 0.00 0.00 0.00 123.03 119.24 1.00 60.06 0.00 0.00 0.00 0.00 0.00 0.00
2024-04-11 05:08:12 357042066469132 537019040002 0001 0001 Auto 0.00 0.00 0.00 0.00 0.00 0.00 0.00 0.00 123.44 119.37 1.00 59.98 0.00 0.00 0.00 0.00 0.00 0.00
2024-04-11 05:23:13 357042066469132 537019040002 0001 0001 Auto 0.00 0.00 0.00 0.00 0.00 0.00 0.00 0.00 122.44 120.11 1.00 60.03 0.00 0.00 0.00 0.00 0.00 0.00
2024-04-11 05:38:12 357042066469132 537019040002 0001 0001 Auto 0.00 0.00 0.00 0.00 0.00 0.00 0.00 0.00 123.06 120.57 1.00 60.06 0.00 0.00 0.00 0.00 0.00 0.00
2024-04-11 05:53:12 357042066469132 537019040002 0001 0001 Auto 0.00 0.00 0.00 0.00 0.00 0.00 0.00 0.00 120.73 118.13 1.00 60.07 0.00 0.00 0.00 0.00 0.00 0.00
2024-04-11 06:08:11 357042066469132 537019040002 0001 0001 Auto 0.00 0.00 0.00 0.00 0.00 0.00 0.00 0.00 121.38 118.14 1.00 60.04 0.00 0.00 0.00 0.00 0.00 0.00
2024-04-11 06:23:12 357042066469132 537019040002 0001 0001 Auto 0.00 0.00 0.00 0.00 0.00 0.00 0.00 0.00 121.68 120.66 1.00 60.01 0.00 0.00 0.00 0.00 0.00 0.00
2024-04-11 06:38:12 357042066469132 537019040002 0001 0001 Auto 0.00 0.00 0.00 0.00 0.00 0.00 0.00 0.00 122.62 118.71 1.00 60.01 0.00 0.00 0.00 0.00 0.00 0.00
2024-04-11 06:53:12 357042066469132 537019040002 0001 0001 Auto 0.00 0.00 0.00 0.00 0.00 0.00 0.00 0.00 122.03 119.76 1.00 60.07 0.00 0.00 0.00 0.00 0.00 0.00
2024-04-11 07:08:12 357042066469132 537019040002 0001 0001 Auto 0.00 0.00 0.00 0.00 0.00 0.00 0.00 0.00 122.04 119.46 1.00 60.03 0.00 0.00 0.00 0.00 0.00 0.00
2024-04-11 07:23:12 357042066469132 537019040002 0001 0001 Auto 0.00 0.00 0.00 0.00 0.00 0.00 0.00 0.00 118.87 117.94 1.00 60.04 0.00 0.00 0.00 0.00 0.00 0.00
2024-04-11 07:38:11 357042066469132 537019040002 0001 0001 Auto 0.00 0.00 0.00 0.00 0.00 0.00 0.00 0.00 121.24 117.85 1.00 60.07 0.00 0.00 0.00 0.00 0.00 0.00
2024-04-11 07:53:12 357042066469132 537019040002 0001 0001 Auto 0.00 0.00 0.00 0.00 0.00 0.00 0.00 0.00 122.08 117.66 1.00 59.99 0.00 0.00 0.00 0.00 0.00 0.00
2024-04-11 08:08:11 357042066469132 537019040002 0001 0001 Auto 0.00 0.00 0.00 0.00 0.00 0.00 0.00 0.00 119.30 116.92 1.00 60.06 0.00 0.00 0.00 0.00 0.00 0.00
2024-04-11 08:23:11 357042066469132 537019040002 0001 0001 Auto 0.00 0.00 0.00 0.00 0.00 0.00 0.00 0.00 119.93 116.32 1.00 60.09 0.00 0.00 0.00 0.00 0.00 0.00
2024-04-11 08:38:11 357042066469132 537019040002 0001 0001 Auto 0.00 0.00 0.00 0.00 0.00 0.00 0.00 0.00 120.99 119.09 1.00 60.09 0.00 0.00 0.00 0.00 0.00 0.00
2024-04-11 08:53:11 357042066469132 537019040002 0001 0001 Auto 0.00 0.00 0.00 0.00 0.00 0.00 0.00 0.00 121.21 118.44 1.00 60.06 0.00 0.00 0.00 0.00 0.00 0.00
2024-04-11 09:08:12 357042066469132 537019040002 0001 0001 Auto 0.00 0.00 0.00 0.00 0.00 0.00 0.00 0.00 121.96 116.00 1.00 60.06 0.00 0.00 0.00 0.00 0.00 0.00
2024-04-11 09:23:11 357042066469132 537019040002 0001 0001 Auto 0.00 0.00 0.00 0.00 0.00 0.00 0.00 0.00 119.13 117.55 1.00 60.04 0.00 0.00 0.00 0.00 0.00 0.00
2024-04-11 09:38:11 357042066469132 537019040002 0001 0001 Auto 0.00 0.00 0.00 0.00 0.00 0.00 0.00 0.00 118.68 116.11 1.00 60.07 0.00 0.00 0.00 0.00 0.00 0.00
2024-04-11 09:53:11 357042066469132 537019040002 0001 0001 Auto 0.00 0.00 0.00 0.00 0.00 0.00 0.00 0.00 120.89 115.58 1.00 60.02 0.00 0.00 0.00 0.00 0.00 0.00
2024-04-11 10:08:11 357042066469132 537019040002 0001 0001 Auto 0.00 0.00 0.00 0.00 0.00 0.00 0.00 0.00 120.07 117.05 1.00 60.09 0.00 0.00 0.00 0.00 0.00 0.00
2024-04-11 10:23:11 357042066469132 537019040002 0001 0001 Auto 0.00 0.00 0.00 0.00 0.00 0.00 0.00 0.00 120.45 116.62 1.00 59.99 0.00 0.00 0.00 0.00 0.00 0.00
2024-04-11 10:38:12 357042066469132 537019040002 0001 0001 Auto 0.00 0.00 0.00 0.00 0.00 0.00 0.00 0.00 121.87 116.46 1.00 60.01 0.00 0.00 0.00 0.00 0.00 0.00
2024-04-11 10:53:11 357042066469132 537019040002 0001 0001 Auto 0.00 0.00 0.00 0.00 0.00 0.00 0.00 0.00 119.95 115.28 1.00 60.06 0.00 0.00 0.00 0.00 0.00 0.00
2024-04-11 11:08:11 357042066469132 537019040002 0001 0001 Auto 0.00 0.00 0.00 0.00 0.00 0.00 0.00 0.00 120.03 114.85 1.00 60.04 0.00 0.00 0.00 0.00 0.00 0.00
2024-04-11 11:23:11 357042066469132 537019040002 0001 0001 Auto 0.00 0.00 0.00 0.00 0.00 0.00 0.00 0.00 118.87 114.00 1.00 60.00 0.00 0.00 0.00 0.00 0.00 0.00
2024-04-11 11:38:11 357042066469132 537019040002 0001 0001 Auto 0.00 0.00 0.00 0.00 0.00 0.00 0.00 0.00 119.64 115.49 1.00 60.06 0.00 0.00 0.00 0.00 0.00 0.00
2024-04-11 11:53:12 357042066469132 537019040002 0001 0001 Auto 0.00 0.00 0.00 0.00 0.00 0.00 0.00 0.00 119.23 114.82 1.00 60.09 0.00 0.00 0.00 0.00 0.00 0.00
2024-04-11 12:08:11 357042066469132 537019040002 0001 0001 Auto 0.00 0.00 0.00 0.00 0.00 0.00 0.00 0.00 119.17 114.44 1.00 60.03 0.00 0.00 0.00 0.00 0.00 0.00
2024-04-11 12:23:11 357042066469132 537019040002 0001 0001 Auto 0.00 0.00 0.00 0.00 0.00 0.00 0.00 0.00 117.43 113.72 1.00 60.02 0.00 0.00 0.00 0.00 0.00 0.00
2024-04-11 12:38:11 357042066469132 537019040002 0001 0001 Auto 0.00 0.00 0.00 0.00 0.00 0.00 0.00 0.00 115.27 112.37 1.00 60.04 0.00 0.00 0.00 0.00 0.00 0.00
2024-04-11 12:53:11 357042066469132 537019040002 0001 0001 Auto 0.00 0.00 0.00 0.00 0.00 0.00 0.00 0.00 112.04 112.26 1.00 60.06 0.00 0.00 0.00 0.00 0.00 0.00
2024-04-11 13:08:11 357042066469132 537019040002 0001 0001 Auto 0.00 0.00 0.00 0.00 0.00 0.00 0.00 0.00 111.91 113.32 1.00 60.02 0.00 0.00 0.00 0.00 0.00 0.00
2024-04-11 13:23:11 357042066469132 537019040002 0001 0001 Auto 0.00 0.00 0.00 0.00 0.00 0.00 0.00 0.00 111.62 110.80 1.00 60.07 0.00 0.00 0.00 0.00 0.00 0.00
2024-04-11 13:38:11 357042066469132 537019040002 0001 0001 Auto 0.00 0.00 0.00 0.00 0.00 0.00 0.00 0.00 111.79 109.28 1.00 60.05 0.00 0.00 0.00 0.00 0.00 0.00
2024-04-11 13:53:11 357042066469132 537019040002 0001 0001 Auto 0.00 0.00 0.00 0.00 0.00 0.00 0.00 0.00 111.29 110.91 1.00 60.07 0.00 0.00 0.00 0.00 0.00 0.00
2024-04-11 14:08:11 357042066469132 537019040002 0001 0001 Auto 0.00 0.00 0.00 0.00 0.00 0.00 0.00 0.00 111.57 110.02 1.00 60.06 0.00 0.00 0.00 0.00 0.00 0.00
2024-04-11 14:23:11 357042066469132 537019040002 0001 0001 Auto 0.00 0.00 0.00 0.00 0.00 0.00 0.00 0.00 112.36 110.15 1.00 60.06 0.00 0.00 0.00 0.00 0.00 0.00
2024-04-11 14:38:11 357042066469132 537019040002 0001 0001 Auto 0.00 0.00 0.00 0.00 0.00 0.00 0.00 0.00 109.03 109.36 1.00 59.98 0.00 0.00 0.00 0.00 0.00 0.00
2024-04-11 14:53:11 357042066469132 537019040002 0001 0001 Auto 0.00 0.00 0.00 0.00 0.00 0.00 0.00 0.00 109.72 109.43 1.00 60.01 0.00 0.00 0.00 0.00 0.00 0.00
2024-04-11 15:08:11 357042066469132 537019040002 0001 0001 Auto 0.00 0.00 0.00 0.00 0.00 0.00 0.00 0.00 109.02 109.04 1.00 60.05 0.00 0.00 0.00 0.00 0.00 0.00
2024-04-11 15:23:11 357042066469132 537019040002 0001 0001 Auto 0.00 0.00 0.00 0.00 0.00 0.00 0.00 0.00 108.33 110.71 1.00 60.04 0.00 0.00 0.00 0.00 0.00 0.00
2024-04-11 15:38:11 357042066469132 537019040002 0001 0001 Auto 0.00 0.00 0.00 0.00 0.00 0.00 0.00 0.00 108.00 110.48 1.00 60.04 0.00 0.00 0.00 0.00 0.00 0.00
2024-04-11 15:53:11 357042066469132 537019040002 0001 0001 Auto 0.00 0.00 0.00 0.00 0.00 0.00 0.00 0.00 112.34 111.24 1.00 60.10 0.00 0.00 0.00 0.00 0.00 0.00
2024-04-11 16:08:11 357042066469132 537019040002 0001 0001 Auto 0.00 0.00 0.00 0.00 0.00 0.00 0.00 0.00 113.76 109.64 1.00 60.00 0.00 0.00 0.00 0.00 0.00 0.00
2024-04-11 16:23:11 357042066469132 537019040002 0001 0001 Auto 0.00 0.00 0.00 0.00 0.00 0.00 0.00 0.00 114.70 109.16 1.00 60.04 0.00 0.00 0.00 0.00 0.00 0.00
2024-04-11 16:38:10 357042066469132 537019040002 0001 0001 Auto 0.00 0.00 0.00 0.00 0.00 0.00 0.00 0.00 116.03 112.42 1.00 60.05 0.00 0.00 0.00 0.00 0.00 0.00
2024-04-11 16:53:10 357042066469132 537019040002 0001 0001 Auto 0.00 0.00 0.00 0.00 0.00 0.00 0.00 0.00 117.55 115.25 1.00 60.07 0.00 0.00 0.00 0.00 0.00 0.00
2024-04-11 17:08:10 357042066469132 537019040002 0001 0001 Auto 0.00 0.00 0.00 0.00 0.00 0.00 0.00 0.00 118.74 114.16 1.00 60.07 0.00 0.00 0.00 0.00 0.00 0.00
2024-04-11 17:23:10 357042066469132 537019040002 0001 0001 Auto 0.00 0.00 0.00 0.00 0.00 0.00 0.00 0.00 118.26 114.58 1.00 60.07 0.00 0.00 0.00 0.00 0.00 0.00
2024-04-11 17:38:11 357042066469132 537019040002 0001 0001 Auto 0.00 0.00 0.00 0.00 0.00 0.00 0.00 0.00 120.24 115.67 1.00 60.02 0.00 0.00 0.00 0.00 0.00 0.00
2024-04-11 17:53:10 357042066469132 537019040002 0001 0001 Auto 0.00 0.00 0.00 0.00 0.00 0.00 0.00 0.00 119.95 116.56 1.00 60.04 0.00 0.00 0.00 0.00 0.00 0.00
2024-04-11 18:08:10 357042066469132 537019040002 0001 0001 Auto 0.00 0.00 0.00 0.00 0.00 0.00 0.00 0.00 117.99 117.99 1.00 60.02 0.00 0.00 0.00 0.00 0.00 0.00
2024-04-11 18:23:10 357042066469132 537019040002 0001 0001 Auto 0.00 0.00 0.00 0.00 0.00 0.00 0.00 0.00 120.47 117.43 1.00 60.01 0.00 0.00 0.00 0.00 0.00 0.00
2024-04-11 18:38:09 357042066469132 537019040002 0001 0001 Auto 0.00 0.00 0.00 0.00 0.00 0.00 0.00 0.00 119.91 115.32 1.00 60.08 0.00 0.00 0.00 0.00 0.00 0.00
2024-04-11 18:53:10 357042066469132 537019040002 0001 0001 Auto 0.00 0.00 0.00 0.00 0.00 0.00 0.00 0.00 120.93 115.67 1.00 60.04 0.00 0.00 0.00 0.00 0.00 0.00
2024-04-11 19:08:10 357042066469132 537019040002 0001 0001 Auto 0.00 0.00 0.00 0.00 0.00 0.00 0.00 0.00 119.32 114.80 1.00 60.06 0.00 0.00 0.00 0.00 0.00 0.00
2024-04-11 19:23:09 357042066469132 537019040002 0001 0001 Auto 0.00 0.00 0.00 0.00 0.00 0.00 0.00 0.00 118.74 115.51 1.00 60.05 0.00 0.00 0.00 0.00 0.00 0.00
2024-04-11 19:38:10 357042066469132 537019040002 0001 0001 Auto 0.00 0.00 0.00 0.00 0.00 0.00 0.00 0.00 118.46 114.88 1.00 60.04 0.00 0.00 0.00 0.00 0.00 0.00
2024-04-11 19:53:10 357042066469132 537019040002 0001 0001 Auto 0.00 0.00 0.00 0.00 0.00 0.00 0.00 0.00 118.98 115.39 1.00 60.06 0.00 0.00 0.00 0.00 0.00 0.00
2024-04-11 20:08:10 357042066469132 537019040002 0001 0001 Auto 0.00 0.00 0.00 0.00 0.00 0.00 0.00 0.00 120.38 114.82 1.00 60.04 0.00 0.00 0.00 0.00 0.00 0.00
2024-04-11 20:23:10 357042066469132 537019040002 0001 0001 Auto 0.00 0.00 0.00 0.00 0.00 0.00 0.00 0.00 119.39 115.13 1.00 60.01 0.00 0.00 0.00 0.00 0.00 0.00
2024-04-11 20:38:12 357042066469132 537019040002 0001 0001 Auto 0.00 0.00 0.00 0.00 0.00 0.00 0.00 0.00 120.02 113.98 1.00 60.08 0.00 0.00 0.00 0.00 0.00 0.00
2024-04-11 20:53:10 357042066469132 537019040002 0001 0001 Auto 0.00 0.00 0.00 0.00 0.00 0.00 0.00 0.00 119.79 114.27 1.00 60.04 0.00 0.00 0.00 0.00 0.00 0.00
2024-04-11 21:08:11 357042066469132 537019040002 0001 0001 Auto 0.00 0.00 0.00 0.00 0.00 0.00 0.00 0.00 119.53 114.32 1.00 60.00 0.00 0.00 0.00 0.00 0.00 0.00
2024-04-11 21:23:10 357042066469132 537019040002 0001 0001 Auto 0.00 0.00 0.00 0.00 0.00 0.00 0.00 0.00 120.50 115.05 1.00 60.03 0.00 0.00 0.00 0.00 0.00 0.00
2024-04-11 21:38:12 357042066469132 537019040002 0001 0001 Auto 0.00 0.00 0.00 0.00 0.00 0.00 0.00 0.00 120.83 115.53 1.00 60.01 0.00 0.00 0.00 0.00 0.00 0.00
2024-04-11 21:53:10 357042066469132 537019040002 0001 0001 Auto 0.00 0.00 0.00 0.00 0.00 0.00 0.00 0.00 121.78 116.24 1.00 60.01 0.00 0.00 0.00 0.00 0.00 0.00
2024-04-11 22:08:10 357042066469132 537019040002 0001 0001 Auto 0.00 0.00 0.00 0.00 0.00 0.00 0.00 0.00 120.33 115.79 1.00 60.04 0.00 0.00 0.00 0.00 0.00 0.00
2024-04-11 22:23:10 357042066469132 537019040002 0001 0001 Auto 0.00 0.00 0.00 0.00 0.00 0.00 0.00 0.00 121.32 117.15 1.00 60.02 0.00 0.00 0.00 0.00 0.00 0.00
2024-04-11 22:38:10 357042066469132 537019040002 0001 0001 Auto 0.00 0.00 0.00 0.00 0.00 0.00 0.00 0.00 118.86 118.37 1.00 60.02 0.00 0.00 0.00 0.00 0.00 0.00
2024-04-11 22:53:10 357042066469132 537019040002 0001 0001 Auto 0.00 0.00 0.00 0.00 0.00 0.00 0.00 0.00 120.58 116.51 1.00 60.08 0.00 0.00 0.00 0.00 0.00 0.00
2024-04-11 23:08:10 357042066469132 537019040002 0001 0001 Auto 0.00 0.00 0.00 0.00 0.00 0.00 0.00 0.00 120.77 116.76 1.00 60.02 0.00 0.00 0.00 0.00 0.00 0.00
2024-04-11 23:23:09 357042066469132 537019040002 0001 0001 Auto 0.00 0.00 0.00 0.00 0.00 0.00 0.00 0.00 121.69 118.00 1.00 60.06 0.00 0.00 0.00 0.00 0.00 0.00
2024-04-11 23:38:10 357042066469132 537019040002 0001 0001 Auto 0.00 0.00 0.00 0.00 0.00 0.00 0.00 0.00 119.19 114.96 1.00 60.06 0.00 0.00 0.00 0.00 0.00 0.00
2024-04-11 23:53:09 357042066469132 537019040002 0001 0001 Auto 0.00 0.00 0.00 0.00 0.00 0.00 0.00 0.00 119.78 115.87 1.00 60.07 0.00 0.00 0.00 0.00 0.00 0.00
2024-04-12 00:08:10 357042066469132 537019040002 0001 0001 Auto 0.00 0.00 0.00 0.00 0.00 0.00 0.00 0.00 120.20 116.12 1.00 60.05 0.00 0.00 0.00 0.00 0.00 0.00
2024-04-12 00:23:10 357042066469132 537019040002 0001 0001 Auto 0.00 0.00 0.00 0.00 0.00 0.00 0.00 0.00 120.99 115.41 1.00 60.03 0.00 0.00 0.00 0.00 0.00 0.00
2024-04-12 00:38:10 357042066469132 537019040002 0001 0001 Auto 0.00 0.00 0.00 0.00 0.00 0.00 0.00 0.00 120.03 116.02 1.00 60.05 0.00 0.00 0.00 0.00 0.00 0.00
2024-04-12 00:53:10 357042066469132 537019040002 0001 0001 Auto 0.00 0.00 0.00 0.00 0.00 0.00 0.00 0.00 119.69 114.48 1.00 60.06 0.00 0.00 0.00 0.00 0.00 0.00
2024-04-12 01:08:10 357042066469132 537019040002 0001 0001 Auto 0.00 0.00 0.00 0.00 0.00 0.00 0.00 0.00 119.96 115.93 1.00 60.06 0.00 0.00 0.00 0.00 0.00 0.00
2024-04-12 01:23:10 357042066469132 537019040002 0001 0001 Auto 0.00 0.00 0.00 0.00 0.00 0.00 0.00 0.00 120.69 115.57 1.00 60.02 0.00 0.00 0.00 0.00 0.00 0.00
2024-04-12 01:38:10 357042066469132 537019040002 0001 0001 Auto 0.00 0.00 0.00 0.00 0.00 0.00 0.00 0.00 121.87 116.22 1.00 60.05 0.00 0.00 0.00 0.00 0.00 0.00
2024-04-12 01:53:10 357042066469132 537019040002 0001 0001 Auto 0.00 0.00 0.00 0.00 0.00 0.00 0.00 0.00 123.19 117.03 1.00 60.05 0.00 0.00 0.00 0.00 0.00 0.00
2024-04-12 02:08:10 357042066469132 537019040002 0001 0001 Auto 0.00 0.00 0.00 0.00 0.00 0.00 0.00 0.00 122.85 117.01 1.00 60.03 0.00 0.00 0.00 0.00 0.00 0.00
2024-04-12 02:23:10 357042066469132 537019040002 0001 0001 Auto 0.00 0.00 0.00 0.00 0.00 0.00 0.00 0.00 121.32 117.11 1.00 60.07 0.00 0.00 0.00 0.00 0.00 0.00
2024-04-12 02:38:10 357042066469132 537019040002 0001 0001 Auto 0.00 0.00 0.00 0.00 0.00 0.00 0.00 0.00 122.53 118.36 1.00 60.06 0.00 0.00 0.00 0.00 0.00 0.00
2024-04-12 02:53:09 357042066469132 537019040002 0001 0001 Auto 0.00 0.00 0.00 0.00 0.00 0.00 0.00 0.00 121.96 117.54 1.00 60.01 0.00 0.00 0.00 0.00 0.00 0.00
2024-04-12 03:08:10 357042066469132 537019040002 0001 0001 Auto 0.00 0.00 0.00 0.00 0.00 0.00 0.00 0.00 121.90 118.43 1.00 60.02 0.00 0.00 0.00 0.00 0.00 0.00
2024-04-12 03:23:10 357042066469132 537019040002 0001 0001 Auto 0.00 0.00 0.00 0.00 0.00 0.00 0.00 0.00 121.62 115.84 1.00 60.01 0.00 0.00 0.00 0.00 0.00 0.00
2024-04-12 03:38:11 357042066469132 537019040002 0001 0001 Auto 0.00 0.00 0.00 0.00 0.00 0.00 0.00 0.00 123.05 118.70 1.00 60.06 0.00 0.00 0.00 0.00 0.00 0.00
2024-04-12 03:53:10 357042066469132 537019040002 0001 0001 Auto 0.00 0.00 0.00 0.00 0.00 0.00 0.00 0.00 122.73 118.86 1.00 60.06 0.00 0.00 0.00 0.00 0.00 0.00
2024-04-12 04:08:09 357042066469132 537019040002 0001 0001 Auto 0.00 0.00 0.00 0.00 0.00 0.00 0.00 0.00 121.78 117.81 1.00 60.03 0.00 0.00 0.00 0.00 0.00 0.00
2024-04-12 04:23:09 357042066469132 537019040002 0001 0001 Auto 0.00 0.00 0.00 0.00 0.00 0.00 0.00 0.00 122.65 117.77 1.00 60.07 0.00 0.00 0.00 0.00 0.00 0.00
2024-04-12 04:38:09 357042066469132 537019040002 0001 0001 Auto 0.00 0.00 0.00 0.00 0.00 0.00 0.00 0.00 124.07 118.55 1.00 60.04 0.00 0.00 0.00 0.00 0.00 0.00
2024-04-12 04:53:09 357042066469132 537019040002 0001 0001 Auto 0.00 0.00 0.00 0.00 0.00 0.00 0.00 0.00 122.96 119.44 1.00 59.99 0.00 0.00 0.00 0.00 0.00 0.00
2024-04-12 05:08:09 357042066469132 537019040002 0001 0001 Auto 0.00 0.00 0.00 0.00 0.00 0.00 0.00 0.00 122.63 118.59 1.00 59.99 0.00 0.00 0.00 0.00 0.00 0.00
2024-04-12 05:23:09 357042066469132 537019040002 0001 0001 Auto 0.00 0.00 0.00 0.00 0.00 0.00 0.00 0.00 122.80 119.52 1.00 60.06 0.00 0.00 0.00 0.00 0.00 0.00
2024-04-12 05:38:10 357042066469132 537019040002 0001 0001 Auto 0.00 0.00 0.00 0.00 0.00 0.00 0.00 0.00 121.78 118.26 1.00 60.04 0.00 0.00 0.00 0.00 0.00 0.00
2024-04-12 05:53:10 357042066469132 537019040002 0001 0001 Auto 0.00 0.00 0.00 0.00 0.00 0.00 0.00 0.00 121.44 117.97 1.00 60.05 0.00 0.00 0.00 0.00 0.00 0.00
2024-04-12 06:08:09 357042066469132 537019040002 0001 0001 Auto 0.00 0.00 0.00 0.00 0.00 0.00 0.00 0.00 122.28 118.13 1.00 60.06 0.00 0.00 0.00 0.00 0.00 0.00
2024-04-12 06:23:10 357042066469132 537019040002 0001 0001 Auto 0.00 0.00 0.00 0.00 0.00 0.00 0.00 0.00 120.96 119.53 1.00 60.02 0.00 0.00 0.00 0.00 0.00 0.00
2024-04-12 06:38:09 357042066469132 537019040002 0001 0001 Auto 0.00 0.00 0.00 0.00 0.00 0.00 0.00 0.00 123.70 118.99 1.00 59.98 0.00 0.00 0.00 0.00 0.00 0.00
2024-04-12 06:53:10 357042066469132 537019040002 0001 0001 Auto 0.00 0.00 0.00 0.00 0.00 0.00 0.00 0.00 121.59 120.53 1.00 60.01 0.00 0.00 0.00 0.00 0.00 0.00
2024-04-12 07:08:10 357042066469132 537019040002 0001 0001 Auto 0.00 0.00 0.00 0.00 0.00 0.00 0.00 0.00 121.48 119.84 1.00 60.02 0.00 0.00 0.00 0.00 0.00 0.00
2024-04-12 07:23:08 357042066469132 537019040002 0001 0001 Auto 0.00 0.00 0.00 0.00 0.00 0.00 0.00 0.00 122.60 119.83 1.00 60.01 0.00 0.00 0.00 0.00 0.00 0.00
2024-04-12 07:38:08 357042066469132 537019040002 0001 0001 Auto 0.00 0.00 0.00 0.00 0.00 0.00 0.00 0.00 122.49 119.36 1.00 60.04 0.00 0.00 0.00 0.00 0.00 0.00
2024-04-12 07:53:09 357042066469132 537019040002 0001 0001 Auto 0.00 0.00 0.00 0.00 0.00 0.00 0.00 0.00 122.85 118.94 1.00 60.02 0.00 0.00 0.00 0.00 0.00 0.00
2024-04-12 08:08:09 357042066469132 537019040002 0001 0001 Auto 0.00 0.00 0.00 0.00 0.00 0.00 0.00 0.00 120.98 118.46 1.00 60.08 0.00 0.00 0.00 0.00 0.00 0.00
2024-04-12 08:23:08 357042066469132 537019040002 0001 0001 Auto 0.00 0.00 0.00 0.00 0.00 0.00 0.00 0.00 121.76 118.72 1.00 60.08 0.00 0.00 0.00 0.00 0.00 0.00
2024-04-12 08:38:08 357042066469132 537019040002 0001 0001 Auto 0.00 0.00 0.00 0.00 0.00 0.00 0.00 0.00 121.19 116.63 1.00 60.10 0.00 0.00 0.00 0.00 0.00 0.00
2024-04-12 08:53:09 357042066469132 537019040002 0001 0001 Auto 0.00 0.00 0.00 0.00 0.00 0.00 0.00 0.00 122.21 117.85 1.00 59.99 0.00 0.00 0.00 0.00 0.00 0.00
2024-04-12 09:08:08 357042066469132 537019040002 0001 0001 Auto 0.00 0.00 0.00 0.00 0.00 0.00 0.00 0.00 120.93 117.10 1.00 60.06 0.00 0.00 0.00 0.00 0.00 0.00
2024-04-12 09:23:08 357042066469132 537019040002 0001 0001 Auto 0.00 0.00 0.00 0.00 0.00 0.00 0.00 0.00 121.11 118.09 1.00 60.03 0.00 0.00 0.00 0.00 0.00 0.00
2024-04-12 09:38:08 357042066469132 537019040002 0001 0001 Auto 0.00 0.00 0.00 0.00 0.00 0.00 0.00 0.00 126.23 120.79 1.00 60.08 0.00 0.00 0.00 0.00 0.00 0.00
2024-04-12 09:53:08 357042066469132 537019040002 0001 0001 Auto 0.00 0.00 0.00 0.00 0.00 0.00 0.00 0.00 124.89 120.81 1.00 59.99 0.00 0.00 0.00 0.00 0.00 0.00
2024-04-12 10:08:08 357042066469132 537019040002 0001 0001 Auto 0.00 0.00 0.00 0.00 0.00 0.00 0.00 0.00 122.49 120.46 1.00 60.08 0.00 0.00 0.00 0.00 0.00 0.00
2024-04-12 10:23:08 357042066469132 537019040002 0001 0001 Auto 0.00 0.00 0.00 0.00 0.00 0.00 0.00 0.00 121.38 120.32 1.00 60.08 0.00 0.00 0.00 0.00 0.00 0.00
2024-04-12 10:38:08 357042066469132 537019040002 0001 0001 Auto 0.00 0.00 0.00 0.00 0.00 0.00 0.00 0.00 121.64 119.80 1.00 60.04 0.00 0.00 0.00 0.00 0.00 0.00
2024-04-12 10:53:11 357042066469132 537019040002 0001 0001 Auto 0.00 0.00 0.00 0.00 0.00 0.00 0.00 0.00 121.48 118.47 1.00 60.03 0.00 0.00 0.00 0.00 0.00 0.00
2024-04-12 11:08:08 357042066469132 537019040002 0001 0001 Auto 0.00 0.00 0.00 0.00 0.00 0.00 0.00 0.00 120.48 116.03 1.00 60.01 0.00 0.00 0.00 0.00 0.00 0.00
2024-04-12 11:23:08 357042066469132 537019040002 0001 0001 Auto 0.00 0.00 0.00 0.00 0.00 0.00 0.00 0.00 118.66 116.41 1.00 60.01 0.00 0.00 0.00 0.00 0.00 0.00
2024-04-12 11:38:07 357042066469132 537019040002 0001 0001 Auto 0.00 0.00 0.00 0.00 0.00 0.00 0.00 0.00 118.14 114.84 1.00 60.06 0.00 0.00 0.00 0.00 0.00 0.00
2024-04-12 11:53:08 357042066469132 537019040002 0001 0001 Auto 0.00 0.00 0.00 0.00 0.00 0.00 0.00 0.00 117.98 114.05 1.00 60.08 0.00 0.00 0.00 0.00 0.00 0.00
2024-04-12 12:08:08 357042066469132 537019040002 0001 0001 Auto 0.00 0.00 0.00 0.00 0.00 0.00 0.00 0.00 117.55 113.70 1.00 60.03 0.00 0.00 0.00 0.00 0.00 0.00
2024-04-12 12:23:07 357042066469132 537019040002 0001 0001 Auto 0.00 0.00 0.00 0.00 0.00 0.00 0.00 0.00 117.16 114.48 1.00 60.01 0.00 0.00 0.00 0.00 0.00 0.00
2024-04-12 12:38:08 357042066469132 537019040002 0001 0001 Auto 0.00 0.00 0.00 0.00 0.00 0.00 0.00 0.00 117.30 114.06 1.00 60.06 0.00 0.00 0.00 0.00 0.00 0.00
2024-04-12 12:53:08 357042066469132 537019040002 0001 0001 Auto 0.00 0.00 0.00 0.00 0.00 0.00 0.00 0.00 116.21 112.56 1.00 60.05 0.00 0.00 0.00 0.00 0.00 0.00
2024-04-12 13:08:08 357042066469132 537019040002 0001 0001 Auto 0.00 0.00 0.00 0.00 0.00 0.00 0.00 0.00 117.38 112.52 1.00 60.04 0.00 0.00 0.00 0.00 0.00 0.00
2024-04-12 13:23:08 357042066469132 537019040002 0001 0001 Auto 0.00 0.00 0.00 0.00 0.00 0.00 0.00 0.00 115.03 112.75 1.00 60.03 0.00 0.00 0.00 0.00 0.00 0.00
2024-04-12 13:38:08 357042066469132 537019040002 0001 0001 Auto 0.00 0.00 0.00 0.00 0.00 0.00 0.00 0.00 113.34 113.60 1.00 60.09 0.00 0.00 0.00 0.00 0.00 0.00
2024-04-12 13:53:08 357042066469132 537019040002 0001 0001 Auto 0.00 0.00 0.00 0.00 0.00 0.00 0.00 0.00 114.51 112.85 1.00 60.09 0.00 0.00 0.00 0.00 0.00 0.00
2024-04-12 14:08:08 357042066469132 537019040002 0001 0001 Auto 0.00 0.00 0.00 0.00 0.00 0.00 0.00 0.00 114.60 111.34 1.00 60.10 0.00 0.00 0.00 0.00 0.00 0.00
2024-04-12 14:23:08 357042066469132 537019040002 0001 0001 Auto 0.00 0.00 0.00 0.00 0.00 0.00 0.00 0.00 109.39 112.38 1.00 60.01 0.00 0.00 0.00 0.00 0.00 0.00
2024-04-12 14:38:08 357042066469132 537019040002 0001 0001 Auto 0.00 0.00 0.00 0.00 0.00 0.00 0.00 0.00 114.52 112.97 1.00 60.06 0.00 0.00 0.00 0.00 0.00 0.00
2024-04-12 14:53:08 357042066469132 537019040002 0001 0001 Auto 0.00 0.00 0.00 0.00 0.00 0.00 0.00 0.00 113.42 111.24 1.00 60.10 0.00 0.00 0.00 0.00 0.00 0.00
2024-04-12 15:08:08 357042066469132 537019040002 0001 0001 Auto 0.00 0.00 0.00 0.00 0.00 0.00 0.00 0.00 113.48 110.47 1.00 60.01 0.00 0.00 0.00 0.00 0.00 0.00
2024-04-12 15:23:07 357042066469132 537019040002 0001 0001 Auto 0.00 0.00 0.00 0.00 0.00 0.00 0.00 0.00 114.90 112.75 1.00 60.06 0.00 0.00 0.00 0.00 0.00 0.00
2024-04-12 15:38:08 357042066469132 537019040002 0001 0001 Auto 0.00 0.00 0.00 0.00 0.00 0.00 0.00 0.00 116.15 112.75 1.00 60.06 0.00 0.00 0.00 0.00 0.00 0.00
2024-04-12 15:53:08 357042066469132 537019040002 0001 0001 Auto 0.00 0.00 0.00 0.00 0.00 0.00 0.00 0.00 114.43 112.34 1.00 60.04 0.00 0.00 0.00 0.00 0.00 0.00
2024-04-12 16:08:08 357042066469132 537019040002 0001 0001 Auto 0.00 0.00 0.00 0.00 0.00 0.00 0.00 0.00 116.07 113.24 1.00 60.03 0.00 0.00 0.00 0.00 0.00 0.00
2024-04-12 16:23:07 357042066469132 537019040002 0001 0001 Auto 0.00 0.00 0.00 0.00 0.00 0.00 0.00 0.00 116.62 114.46 1.00 60.03 0.00 0.00 0.00 0.00 0.00 0.00
2024-04-12 16:38:08 357042066469132 537019040002 0001 0001 Auto 0.00 0.00 0.00 0.00 0.00 0.00 0.00 0.00 115.55 114.37 1.00 60.06 0.00 0.00 0.00 0.00 0.00 0.00
2024-04-12 16:53:08 357042066469132 537019040002 0001 0001 Auto 0.00 0.00 0.00 0.00 0.00 0.00 0.00 0.00 115.68 114.65 1.00 60.01 0.00 0.00 0.00 0.00 0.00 0.00
2024-04-12 17:08:08 357042066469132 537019040002 0001 0001 Auto 0.00 0.00 0.00 0.00 0.00 0.00 0.00 0.00 119.47 117.26 1.00 59.99 0.00 0.00 0.00 0.00 0.00 0.00
2024-04-12 17:23:07 357042066469132 537019040002 0001 0001 Auto 0.00 0.00 0.00 0.00 0.00 0.00 0.00 0.00 119.36 117.47 1.00 60.03 0.00 0.00 0.00 0.00 0.00 0.00
2024-04-12 17:38:07 357042066469132 537019040002 0001 0001 Auto 0.00 0.00 0.00 0.00 0.00 0.00 0.00 0.00 121.54 117.83 1.00 60.03 0.00 0.00 0.00 0.00 0.00 0.00
2024-04-12 17:53:08 357042066469132 537019040002 0001 0001 Auto 0.00 0.00 0.00 0.00 0.00 0.00 0.00 0.00 121.06 118.25 1.00 60.06 0.00 0.00 0.00 0.00 0.00 0.00
2024-04-12 18:08:07 357042066469132 537019040002 0001 0001 Auto 0.00 0.00 0.00 0.00 0.00 0.00 0.00 0.00 120.99 118.62 1.00 60.03 0.00 0.00 0.00 0.00 0.00 0.00
2024-04-12 18:23:07 357042066469132 537019040002 0001 0001 Auto 0.00 0.00 0.00 0.00 0.00 0.00 0.00 0.00 120.15 120.13 1.00 60.03 0.00 0.00 0.00 0.00 0.00 0.00
2024-04-12 18:38:07 357042066469132 537019040002 0001 0001 Auto 0.00 0.00 0.00 0.00 0.00 0.00 0.00 0.00 118.83 116.16 1.00 60.06 0.00 0.00 0.00 0.00 0.00 0.00
2024-04-12 18:53:07 357042066469132 537019040002 0001 0001 Auto 0.00 0.00 0.00 0.00 0.00 0.00 0.00 0.00 120.60 117.57 1.00 60.04 0.00 0.00 0.00 0.00 0.00 0.00
2024-04-12 19:08:07 357042066469132 537019040002 0001 0001 Auto 0.00 0.00 0.00 0.00 0.00 0.00 0.00 0.00 121.57 118.34 1.00 60.04 0.00 0.00 0.00 0.00 0.00 0.00
2024-04-12 19:23:07 357042066469132 537019040002 0001 0001 Auto 0.00 0.00 0.00 0.00 0.00 0.00 0.00 0.00 119.93 116.83 1.00 60.05 0.00 0.00 0.00 0.00 0.00 0.00
2024-04-12 19:38:07 357042066469132 537019040002 0001 0001 Auto 0.00 0.00 0.00 0.00 0.00 0.00 0.00 0.00 120.69 117.35 1.00 60.04 0.00 0.00 0.00 0.00 0.00 0.00
2024-04-12 19:53:07 357042066469132 537019040002 0001 0001 Auto 0.00 0.00 0.00 0.00 0.00 0.00 0.00 0.00 121.43 117.68 1.00 60.07 0.00 0.00 0.00 0.00 0.00 0.00
2024-04-12 20:08:07 357042066469132 537019040002 0001 0001 Auto 0.00 0.00 0.00 0.00 0.00 0.00 0.00 0.00 121.79 116.86 1.00 60.04 0.00 0.00 0.00 0.00 0.00 0.00
2024-04-12 20:23:07 357042066469132 537019040002 0001 0001 Auto 0.00 0.00 0.00 0.00 0.00 0.00 0.00 0.00 119.77 118.18 1.00 60.02 0.00 0.00 0.00 0.00 0.00 0.00
2024-04-12 20:38:07 357042066469132 537019040002 0001 0001 Auto 0.00 0.00 0.00 0.00 0.00 0.00 0.00 0.00 122.39 116.74 1.00 60.08 0.00 0.00 0.00 0.00 0.00 0.00
2024-04-12 20:53:07 357042066469132 537019040002 0001 0001 Auto 0.00 0.00 0.00 0.00 0.00 0.00 0.00 0.00 123.16 115.28 1.00 60.03 0.00 0.00 0.00 0.00 0.00 0.00
2024-04-12 21:08:07 357042066469132 537019040002 0001 0001 Auto 0.00 0.00 0.00 0.00 0.00 0.00 0.00 0.00 123.39 117.09 1.00 60.07 0.00 0.00 0.00 0.00 0.00 0.00
2024-04-12 21:23:07 357042066469132 537019040002 0001 0001 Auto 0.00 0.00 0.00 0.00 0.00 0.00 0.00 0.00 123.63 117.28 1.00 60.07 0.00 0.00 0.00 0.00 0.00 0.00
2024-04-12 21:38:08 357042066469132 537019040002 0001 0001 Auto 0.00 0.00 0.00 0.00 0.00 0.00 0.00 0.00 122.80 117.69 1.00 60.03 0.00 0.00 0.00 0.00 0.00 0.00
2024-04-12 21:53:07 357042066469132 537019040002 0001 0001 Auto 0.00 0.00 0.00 0.00 0.00 0.00 0.00 0.00 123.21 117.22 1.00 60.06 0.00 0.00 0.00 0.00 0.00 0.00
2024-04-12 22:08:07 357042066469132 537019040002 0001 0001 Auto 0.00 0.00 0.00 0.00 0.00 0.00 0.00 0.00 123.17 115.16 1.00 60.03 0.00 0.00 0.00 0.00 0.00 0.00
2024-04-12 22:23:07 357042066469132 537019040002 0001 0001 Auto 0.00 0.00 0.00 0.00 0.00 0.00 0.00 0.00 121.55 116.52 1.00 60.02 0.00 0.00 0.00 0.00 0.00 0.00
2024-04-12 22:38:08 357042066469132 537019040002 0001 0001 Auto 0.00 0.00 0.00 0.00 0.00 0.00 0.00 0.00 123.05 114.80 1.00 60.03 0.00 0.00 0.00 0.00 0.00 0.00
2024-04-12 22:53:07 357042066469132 537019040002 0001 0001 Auto 0.00 0.00 0.00 0.00 0.00 0.00 0.00 0.00 123.03 115.93 1.00 60.08 0.00 0.00 0.00 0.00 0.00 0.00
2024-04-12 23:08:07 357042066469132 537019040002 0001 0001 Auto 0.00 0.00 0.00 0.00 0.00 0.00 0.00 0.00 123.22 116.41 1.00 60.08 0.00 0.00 0.00 0.00 0.00 0.00
2024-04-12 23:23:07 357042066469132 537019040002 0001 0001 Auto 0.00 0.00 0.00 0.00 0.00 0.00 0.00 0.00 122.60 116.69 1.00 60.01 0.00 0.00 0.00 0.00 0.00 0.00
2024-04-12 23:38:07 357042066469132 537019040002 0001 0001 Auto 0.00 0.00 0.00 0.00 0.00 0.00 0.00 0.00 121.58 113.87 1.00 60.01 0.00 0.00 0.00 0.00 0.00 0.00
2024-04-12 23:53:07 357042066469132 537019040002 0001 0001 Auto 0.00 0.00 0.00 0.00 0.00 0.00 0.00 0.00 122.00 115.93 1.00 60.04 0.00 0.00 0.00 0.00 0.00 0.00
2024-04-13 00:08:07 357042066469132 537019040002 0001 0001 Auto 0.00 0.00 0.00 0.00 0.00 0.00 0.00 0.00 120.19 115.28 1.00 59.99 0.00 0.00 0.00 0.00 0.00 0.00
2024-04-13 00:23:07 357042066469132 537019040002 0001 0001 Auto 0.00 0.00 0.00 0.00 0.00 0.00 0.00 0.00 119.57 114.79 1.00 60.02 0.00 0.00 0.00 0.00 0.00 0.00
2024-04-13 00:38:07 357042066469132 537019040002 0001 0001 Auto 0.00 0.00 0.00 0.00 0.00 0.00 0.00 0.00 118.74 117.34 1.00 60.06 0.00 0.00 0.00 0.00 0.00 0.00
2024-04-13 00:53:07 357042066469132 537019040002 0001 0001 Auto 0.00 0.00 0.00 0.00 0.00 0.00 0.00 0.00 119.51 117.83 1.00 60.01 0.00 0.00 0.00 0.00 0.00 0.00
2024-04-13 01:08:07 357042066469132 537019040002 0001 0001 Auto 0.00 0.00 0.00 0.00 0.00 0.00 0.00 0.00 119.23 117.15 1.00 60.04 0.00 0.00 0.00 0.00 0.00 0.00
2024-04-13 01:23:07 357042066469132 537019040002 0001 0001 Auto 0.00 0.00 0.00 0.00 0.00 0.00 0.00 0.00 121.13 117.38 1.00 60.08 0.00 0.00 0.00 0.00 0.00 0.00
2024-04-13 01:38:07 357042066469132 537019040002 0001 0001 Auto 0.00 0.00 0.00 0.00 0.00 0.00 0.00 0.00 122.06 117.10 1.00 60.06 0.00 0.00 0.00 0.00 0.00 0.00
2024-04-13 01:53:07 357042066469132 537019040002 0001 0001 Auto 0.00 0.00 0.00 0.00 0.00 0.00 0.00 0.00 121.04 117.20 1.00 60.09 0.00 0.00 0.00 0.00 0.00 0.00
2024-04-13 02:08:07 357042066469132 537019040002 0001 0001 Auto 0.00 0.00 0.00 0.00 0.00 0.00 0.00 0.00 120.99 117.01 1.00 60.06 0.00 0.00 0.00 0.00 0.00 0.00
2024-04-13 02:23:06 357042066469132 537019040002 0001 0001 Auto 0.00 0.00 0.00 0.00 0.00 0.00 0.00 0.00 121.61 115.71 1.00 60.07 0.00 0.00 0.00 0.00 0.00 0.00
2024-04-13 02:38:07 357042066469132 537019040002 0001 0001 Auto 0.00 0.00 0.00 0.00 0.00 0.00 0.00 0.00 121.36 116.97 1.00 60.01 0.00 0.00 0.00 0.00 0.00 0.00
2024-04-13 02:53:06 357042066469132 537019040002 0001 0001 Auto 0.00 0.00 0.00 0.00 0.00 0.00 0.00 0.00 121.30 117.79 1.00 60.08 0.00 0.00 0.00 0.00 0.00 0.00
2024-04-13 03:08:06 357042066469132 537019040002 0001 0001 Auto 0.00 0.00 0.00 0.00 0.00 0.00 0.00 0.00 120.17 117.46 1.00 60.06 0.00 0.00 0.00 0.00 0.00 0.00
2024-04-13 03:23:06 357042066469132 537019040002 0001 0001 Auto 0.00 0.00 0.00 0.00 0.00 0.00 0.00 0.00 122.00 116.17 1.00 60.07 0.00 0.00 0.00 0.00 0.00 0.00
2024-04-13 03:38:06 357042066469132 537019040002 0001 0001 Auto 0.00 0.00 0.00 0.00 0.00 0.00 0.00 0.00 121.13 116.56 1.00 60.00 0.00 0.00 0.00 0.00 0.00 0.00
2024-04-13 03:53:06 357042066469132 537019040002 0001 0001 Auto 0.00 0.00 0.00 0.00 0.00 0.00 0.00 0.00 122.17 117.89 1.00 60.04 0.00 0.00 0.00 0.00 0.00 0.00
2024-04-13 04:08:08 357042066469132 537019040002 0001 0001 Auto 0.00 0.00 0.00 0.00 0.00 0.00 0.00 0.00 122.62 117.77 1.00 60.05 0.00 0.00 0.00 0.00 0.00 0.00
2024-04-13 04:23:06 357042066469132 537019040002 0001 0001 Auto 0.00 0.00 0.00 0.00 0.00 0.00 0.00 0.00 122.39 119.33 1.00 60.10 0.00 0.00 0.00 0.00 0.00 0.00
2024-04-13 04:38:06 357042066469132 537019040002 0001 0001 Auto 0.00 0.00 0.00 0.00 0.00 0.00 0.00 0.00 123.14 118.51 1.00 60.07 0.00 0.00 0.00 0.00 0.00 0.00
2024-04-13 04:53:06 357042066469132 537019040002 0001 0001 Auto 0.00 0.00 0.00 0.00 0.00 0.00 0.00 0.00 122.66 118.89 1.00 60.03 0.00 0.00 0.00 0.00 0.00 0.00
2024-04-13 05:08:06 357042066469132 537019040002 0001 0001 Auto 0.00 0.00 0.00 0.00 0.00 0.00 0.00 0.00 124.30 119.14 1.00 60.00 0.00 0.00 0.00 0.00 0.00 0.00
2024-04-13 05:23:06 357042066469132 537019040002 0001 0001 Auto 0.00 0.00 0.00 0.00 0.00 0.00 0.00 0.00 123.07 120.02 1.00 60.08 0.00 0.00 0.00 0.00 0.00 0.00
2024-04-13 05:38:06 357042066469132 537019040002 0001 0001 Auto 0.00 0.00 0.00 0.00 0.00 0.00 0.00 0.00 124.06 119.18 1.00 60.02 0.00 0.00 0.00 0.00 0.00 0.00
2024-04-13 05:53:06 357042066469132 537019040002 0001 0001 Auto 0.00 0.00 0.00 0.00 0.00 0.00 0.00 0.00 123.42 120.17 1.00 60.05 0.00 0.00 0.00 0.00 0.00 0.00
2024-04-13 06:08:06 357042066469132 537019040002 0001 0001 Auto 0.00 0.00 0.00 0.00 0.00 0.00 0.00 0.00 123.03 117.85 1.00 60.03 0.00 0.00 0.00 0.00 0.00 0.00
2024-04-13 06:23:06 357042066469132 537019040002 0001 0001 Auto 0.00 0.00 0.00 0.00 0.00 0.00 0.00 0.00 122.87 118.60 1.00 60.06 0.00 0.00 0.00 0.00 0.00 0.00
2024-04-13 06:38:06 357042066469132 537019040002 0001 0001 Auto 0.00 0.00 0.00 0.00 0.00 0.00 0.00 0.00 124.69 119.86 1.00 60.05 0.00 0.00 0.00 0.00 0.00 0.00
2024-04-13 06:53:06 357042066469132 537019040002 0001 0001 Auto 0.00 0.00 0.00 0.00 0.00 0.00 0.00 0.00 125.24 120.40 1.00 60.01 0.00 0.00 0.00 0.00 0.00 0.00
2024-04-13 07:08:06 357042066469132 537019040002 0001 0001 Auto 0.00 0.00 0.00 0.00 0.00 0.00 0.00 0.00 124.45 120.71 1.00 59.99 0.00 0.00 0.00 0.00 0.00 0.00
2024-04-13 07:23:06 357042066469132 537019040002 0001 0001 Auto 0.00 0.00 0.00 0.00 0.00 0.00 0.00 0.00 123.91 120.12 1.00 60.05 0.00 0.00 0.00 0.00 0.00 0.00
2024-04-13 07:38:06 357042066469132 537019040002 0001 0001 Auto 0.00 0.00 0.00 0.00 0.00 0.00 0.00 0.00 123.85 120.12 1.00 60.05 0.00 0.00 0.00 0.00 0.00 0.00
2024-04-13 07:53:06 357042066469132 537019040002 0001 0001 Auto 0.00 0.00 0.00 0.00 0.00 0.00 0.00 0.00 122.71 120.65 1.00 60.02 0.00 0.00 0.00 0.00 0.00 0.00
2024-04-13 08:08:06 357042066469132 537019040002 0001 0001 Auto 0.00 0.00 0.00 0.00 0.00 0.00 0.00 0.00 122.48 119.62 1.00 60.03 0.00 0.00 0.00 0.00 0.00 0.00
2024-04-13 08:23:07 357042066469132 537019040002 0001 0001 Auto 0.00 0.00 0.00 0.00 0.00 0.00 0.00 0.00 121.81 119.59 1.00 60.06 0.00 0.00 0.00 0.00 0.00 0.00
2024-04-13 08:38:05 357042066469132 537019040002 0001 0001 Auto 0.00 0.00 0.00 0.00 0.00 0.00 0.00 0.00 123.27 120.53 1.00 60.07 0.00 0.00 0.00 0.00 0.00 0.00
2024-04-13 08:53:06 357042066469132 537019040002 0001 0001 Auto 0.00 0.00 0.00 0.00 0.00 0.00 0.00 0.00 121.90 120.60 1.00 60.09 0.00 0.00 0.00 0.00 0.00 0.00
2024-04-13 09:08:06 357042066469132 537019040002 0001 0001 Auto 0.00 0.00 0.00 0.00 0.00 0.00 0.00 0.00 121.87 118.49 1.00 60.02 0.00 0.00 0.00 0.00 0.00 0.00
2024-04-13 09:23:06 357042066469132 537019040002 0001 0001 Auto 0.00 0.00 0.00 0.00 0.00 0.00 0.00 0.00 122.45 116.01 1.00 60.06 0.00 0.00 0.00 0.00 0.00 0.00
2024-04-13 09:38:05 357042066469132 537019040002 0001 0001 Auto 0.00 0.00 0.00 0.00 0.00 0.00 0.00 0.00 122.43 118.22 1.00 60.00 0.00 0.00 0.00 0.00 0.00 0.00
2024-04-13 09:53:05 357042066469132 537019040002 0001 0001 Auto 0.00 0.00 0.00 0.00 0.00 0.00 0.00 0.00 120.22 117.40 1.00 60.01 0.00 0.00 0.00 0.00 0.00 0.00
2024-04-13 10:08:06 357042066469132 537019040002 0001 0001 Auto 0.00 0.00 0.00 0.00 0.00 0.00 0.00 0.00 120.78 117.90 1.00 60.08 0.00 0.00 0.00 0.00 0.00 0.00
2024-04-13 10:23:05 357042066469132 537019040002 0001 0001 Auto 0.00 0.00 0.00 0.00 0.00 0.00 0.00 0.00 119.15 118.34 1.00 60.07 0.00 0.00 0.00 0.00 0.00 0.00
2024-04-13 10:38:05 357042066469132 537019040002 0001 0001 Auto 0.00 0.00 0.00 0.00 0.00 0.00 0.00 0.00 119.54 119.14 1.00 60.02 0.00 0.00 0.00 0.00 0.00 0.00
2024-04-13 10:53:06 357042066469132 537019040002 0001 0001 Auto 0.00 0.00 0.00 0.00 0.00 0.00 0.00 0.00 121.59 118.90 1.00 60.04 0.00 0.00 0.00 0.00 0.00 0.00
2024-04-13 11:08:06 357042066469132 537019040002 0001 0001 Auto 0.00 0.00 0.00 0.00 0.00 0.00 0.00 0.00 120.52 118.05 1.00 60.04 0.00 0.00 0.00 0.00 0.00 0.00
2024-04-13 11:23:05 357042066469132 537019040002 0001 0001 Auto 0.00 0.00 0.00 0.00 0.00 0.00 0.00 0.00 121.23 117.87 1.00 60.03 0.00 0.00 0.00 0.00 0.00 0.00
2024-04-13 11:38:05 357042066469132 537019040002 0001 0001 Auto 0.00 0.00 0.00 0.00 0.00 0.00 0.00 0.00 122.07 116.48 1.00 60.06 0.00 0.00 0.00 0.00 0.00 0.00
2024-04-13 11:53:05 357042066469132 537019040002 0001 0001 Auto 0.00 0.00 0.00 0.00 0.00 0.00 0.00 0.00 120.90 117.62 1.00 60.06 0.00 0.00 0.00 0.00 0.00 0.00
2024-04-13 12:08:06 357042066469132 537019040002 0001 0001 Auto 0.00 0.00 0.00 0.00 0.00 0.00 0.00 0.00 121.30 116.74 1.00 60.03 0.00 0.00 0.00 0.00 0.00 0.00
2024-04-13 12:23:05 357042066469132 537019040002 0001 0001 Auto 0.00 0.00 0.00 0.00 0.00 0.00 0.00 0.00 120.64 118.39 1.00 60.05 0.00 0.00 0.00 0.00 0.00 0.00
2024-04-13 12:38:05 357042066469132 537019040002 0001 0001 Auto 0.00 0.00 0.00 0.00 0.00 0.00 0.00 0.00 120.93 118.27 1.00 60.09 0.00 0.00 0.00 0.00 0.00 0.00
2024-04-13 12:53:05 357042066469132 537019040002 0001 0001 Auto 0.00 0.00 0.00 0.00 0.00 0.00 0.00 0.00 120.59 118.28 1.00 60.04 0.00 0.00 0.00 0.00 0.00 0.00
2024-04-13 13:08:05 357042066469132 537019040002 0001 0001 Auto 0.00 0.00 0.00 0.00 0.00 0.00 0.00 0.00 118.31 116.76 1.00 60.09 0.00 0.00 0.00 0.00 0.00 0.00
2024-04-13 13:23:05 357042066469132 537019040002 0001 000